GFSMW_925_rhum_003.txt.gz
RH
29 31 34 36 32 29 26 27 30 40 38 45 56 61 63 65 66 67 68 67 68 69 67 66 69 73 73 71 70 65 70 72 70 70 73 68 65 64 62 60 57 53 52
37 38 38 38 39 38 34 32 31 30 40 45 45 50 57 63 64 66 68 69 73 74 75 74 71 72 78 79 76 73 75 77 76 74 82 81 73 69 68 69 65 61 57
38 43 45 43 35 34 35 36 34 32 36 44 49 52 58 63 63 66 68 70 70 72 75 76 78 77 79 82 84 82 79 78 79 78 74 93 92 88 61 66 68 68 67
39 44 47 46 41 36 32 32 35 38 38 38 40 50 57 61 58 59 60 61 63 65 66 71 77 79 80 82 86 87 86 82 80 84 84 75 71 87 89 64 58 59 60
41 46 50 46 42 37 36 34 34 34 34 39 43 46 50 52 53 53 54 55 56 57 58 65 73 76 80 82 85 88 90 93 86 82 80 87 82 79 81 82 68 68 67
42 47 45 42 42 39 39 38 37 38 36 35 35 36 36 36 38 41 42 43 46 52 56 62 70 70 71 78 81 85 85 87 93 91 84 84 86 80 87 88 80 75 68
45 49 52 48 45 42 39 39 38 38 38 38 38 39 39 38 38 38 39 39 38 38 38 40 41 56 76 81 86 89 85 82 88 89 91 88 88 83 79 78 80 75 66
48 48 48 46 45 42 40 38 39 39 39 39 39 40 41 41 42 43 43 44 44 44 43 41 39 39 39 50 69 82 82 81 83 83 88 92 91 89 90 84 82 83 72
47 48 47 44 43 40 39 39 38 39 40 44 44 45 46 49 50 50 49 50 47 46 44 42 44 43 43 42 41 43 55 66 73 74 76 80 83 86 88 90 86 85 93
48 49 49 43 40 40 39 40 43 47 49 49 50 52 53 55 54 55 56 56 51 47 47 46 47 47 47 47 49 48 46 47 52 65 77 77 78 84 86 86 87 89 90
49 49 46 41 41 44 47 50 53 57 59 59 59 59 60 61 59 58 55 51 48 48 48 49 49 50 53 56 57 56 57 56 55 53 58 70 74 80 82 82 84 93 91
51 49 44 44 48 54 57 61 62 63 61 57 58 57 59 60 56 53 51 51 55 54 55 54 54 55 55 56 58 60 59 61 62 64 67 70 73 76 79 83 83 83 88
50 50 47 48 56 65 66 64 63 57 54 52 53 52 58 56 55 55 55 54 56 58 59 60 60 57 56 56 56 56 60 62 63 67 69 73 76 79 78 81 85 84 84
47 49 51 55 70 70 64 63 61 57 54 54 55 52 58 54 51 46 45 49 50 54 58 57 54 54 60 58 55 59 55 59 68 71 73 75 79 81 81 84 85 85 87
49 50 60 80 77 66 62 58 55 51 48 50 48 54 47 43 43 45 47 48 49 50 50 49 46 59 53 58 53 54 62 72 74 76 74 74 77 79 80 85 90 92 90
49 65 82 80 70 65 59 52 47 44 42 41 44 43 41 41 44 45 46 48 48 47 47 47 51 49 57 52 49 52 70 73 60 59 66 76 83 84 85 85 87 91 98
71 80 78 73 66 60 48 46 45 42 39 37 38 32 32 39 40 41 42 43 43 41 40 50 44 48 47 44 53 53 48 39 46 65 66 81 68 62 72 81 87 92 93
76 77 74 64 56 47 46 44 41 36 29 31 25 23 27 32 34 36 38 38 39 38 38 40 36 41 36 38 47 47 42 43 48 60 62 72 57 66 82 91 92 91 90
78 69 58 54 49 45 41 38 32 27 19 23 24 26 27 30 32 34 34 34 33 36 32 32 36 31 37 38 48 41 45 46 49 61 68 51 56 63 73 87 92 92 94
65 60 55 52 46 40 34 29 22 21 23 26 28 29 29 31 33 32 31 31 32 33 32 30 31 35 38 43 34 31 42 52 55 71 66 62 60 65 74 84 89 96 93
61 56 52 48 41 31 24 22 24 25 26 28 30 32 33 34 34 33 33 34 34 33 34 32 31 34 34 33 32 41 57 57 66 70 75 72 70 79 84 86 94 97 99
56 48 47 40 30 24 24 26 27 27 29 32 34 36 37 38 38 38 39 39 40 38 35 35 37 36 38 41 46 50 54 58 70 75 77 74 77 82 84 92 95 96 99
49 40 36 34 28 27 27 28 29 31 33 36 38 40 40 41 42 43 44 44 42 42 41 42 44 48 52 53 56 56 57 65 73 73 75 78 80 81 94 92 94 99 100
43 35 34 31 31 30 30 31 33 35 37 40 41 42 44 46 47 48 48 48 49 48 49 54 59 62 62 62 59 62 70 72 73 74 79 77 72 87 95 96 97 100 100
36 32 32 33 33 32 32 34 36 39 41 43 45 46 49 50 51 51 51 52 53 55 61 64 66 66 67 62 62 67 69 72 71 71 77 72 73 84 90 97 98 98 100
34 33 33 34 34 35 36 37 38 41 43 46 47 49 51 53 54 54 54 57 61 65 65 65 64 64 61 63 65 66 69 71 66 82 75 75 78 83 92 96 96 97 99

GFSMW_925_rhum_009.txt.gz
RH
45 47 45 41 40 42 41 42 43 44 47 56 66 70 67 66 66 69 70 70 70 70 69 69 70 70 70 72 77 81 84 85 85 92 86 84 84 82 82 80 79 78 76
52 54 50 43 41 40 40 42 44 47 53 58 66 69 71 71 73 74 75 77 78 79 82 84 84 85 85 85 85 88 91 91 88 87 88 93 75 71 69 73 76 70 71
55 59 57 52 45 44 42 39 38 41 45 59 66 70 70 67 58 58 57 57 59 63 66 69 77 85 95 95 93 92 95 95 91 89 90 99 95 88 66 66 68 69 67
56 58 58 56 49 45 41 41 41 40 40 39 40 42 47 51 51 48 46 44 46 46 46 46 47 49 68 95 99 99 100 100 98 95 92 91 86 93 90 70 72 71 71
57 59 60 53 48 44 43 43 43 44 44 43 44 45 48 50 51 50 49 48 46 44 39 36 35 36 38 42 49 70 98 95 97 98 95 96 98 97 97 94 78 74 75
61 60 54 48 47 45 45 44 44 48 48 49 52 54 55 56 56 57 56 53 46 42 39 36 35 36 40 45 46 45 48 60 83 93 93 92 90 88 93 96 90 87 82
61 59 59 55 50 48 47 49 49 55 54 53 56 58 60 60 60 58 53 49 46 44 42 38 37 38 42 46 51 50 47 53 59 67 78 84 88 87 86 87 86 84 74
61 60 59 54 53 50 52 56 56 58 56 58 61 60 59 57 54 53 52 51 50 48 47 44 46 50 52 56 59 57 58 63 62 64 65 73 80 81 87 88 90 85 79
61 60 57 55 54 57 61 59 56 57 56 56 56 58 56 56 56 54 50 46 44 46 43 44 52 54 57 57 55 62 65 65 66 65 69 75 74 77 83 86 89 90 93
60 61 60 59 61 64 64 57 54 54 54 52 53 57 56 52 47 42 38 36 37 39 42 46 54 56 57 52 56 64 64 64 66 69 62 64 68 78 86 89 91 89 90
61 62 65 62 67 67 63 58 55 53 54 55 52 53 46 40 34 28 24 24 25 30 38 44 48 47 45 52 63 54 56 66 63 56 65 69 74 87 86 77 78 81 86
60 64 68 72 73 70 61 57 54 52 52 48 48 43 37 26 17 16 18 19 24 23 30 32 38 36 42 48 57 45 61 55 54 62 68 75 84 76 75 66 73 85 88
66 70 80 82 78 71 63 56 51 48 45 42 44 34 21 14 17 17 17 17 21 23 26 32 37 38 39 52 43 40 58 46 50 57 67 87 65 74 63 68 91 79 63
60 69 88 87 76 67 58 52 48 44 40 38 31 21 16 16 17 17 18 20 23 26 27 32 34 36 41 37 33 50 47 51 61 66 70 54 54 63 67 80 68 59 72
62 79 92 88 75 64 56 50 46 41 32 30 20 19 18 18 20 21 23 24 25 26 26 27 26 31 34 31 40 45 52 65 47 40 43 42 46 44 57 79 73 67 75
64 87 88 82 73 62 53 48 43 33 19 19 20 21 21 23 24 24 24 24 25 28 29 31 33 36 36 38 43 51 61 53 41 37 41 54 53 51 72 76 73 73 75
81 91 83 75 67 53 49 44 35 21 16 20 22 24 26 27 27 28 28 31 34 36 36 37 38 39 39 40 47 52 53 48 49 54 58 60 61 67 80 79 75 79 76
88 83 75 66 53 48 43 35 22 18 20 23 25 28 30 32 33 33 34 36 38 40 41 41 42 42 43 46 50 51 52 56 57 60 62 64 68 74 71 70 65 75 74
82 74 63 57 49 44 35 23 20 22 24 27 29 31 32 35 35 36 38 40 42 44 45 46 46 48 47 50 53 58 62 63 65 67 68 76 70 70 64 66 72 74 73
67 62 56 51 45 33 24 22 25 24 27 29 31 33 35 36 37 39 41 44 46 49 49 51 51 52 53 55 62 64 67 70 71 91 92 75 69 65 67 66 74 96 98
65 57 54 47 34 26 24 26 26 27 30 31 33 34 36 38 40 43 44 47 51 54 56 55 57 58 62 66 66 66 68 69 94 90 75 74 72 76 62 68 80 94 88
59 53 47 36 29 26 26 27 27 30 32 34 35 37 38 40 44 48 49 52 55 58 57 60 62 66 69 70 69 68 66 74 75 73 83 84 65 63 63 63 61 64 77
50 44 40 35 28 27 29 29 29 32 35 38 39 38 41 44 50 51 53 57 58 59 62 64 71 72 72 74 74 73 76 67 68 86 82 64 63 67 69 71 71 80 88
47 41 38 30 29 29 29 32 33 36 38 40 41 42 46 52 52 55 59 58 61 63 66 72 74 76 80 78 72 91 78 70 81 97 69 63 68 74 74 80 81 88 86
44 40 33 33 33 32 32 32 34 37 40 43 45 47 51 56 59 61 59 59 61 68 72 73 73 76 79 74 70 77 66 68 99 65 68 69 78 81 78 80 80 83 85
38 35 34 35 33 34 33 33 35 39 43 47 51 54 61 63 64 62 62 65 70 70 69 70 69 69 67 66 67 64 69 87 67 66 74 80 80 82 83 85 82 87 85

GFSMW_925_rhum_012.txt.gz
RH
52 52 46 42 42 42 44 46 48 54 52 66 74 74 74 72 77 81 83 84 85 87 89 89 90 91 92 92 92 92 93 94 93 97 92 88 81 79 76 73 77 75 70
58 58 51 46 45 44 41 42 44 51 62 67 76 77 79 80 60 56 55 59 60 60 61 62 64 68 78 87 97 98 100 98 93 97 94 96 80 74 69 68 72 72 73
60 61 60 54 48 47 44 41 40 40 43 53 59 61 49 47 47 50 51 50 47 43 41 40 39 40 41 52 63 87 100 99 96 94 98 98 93 86 77 70 70 71 70
58 60 60 58 53 50 47 45 45 45 45 43 43 46 54 59 60 56 52 47 44 41 38 36 36 37 41 45 50 50 56 75 94 91 90 98 99 96 93 74 77 74 72
63 64 63 58 55 50 50 49 49 50 51 51 52 54 58 59 56 52 48 45 42 41 39 37 36 36 40 45 52 53 52 54 72 81 91 92 86 87 91 89 75 72 73
65 64 58 54 54 52 51 50 50 57 55 54 56 57 58 56 53 52 50 49 46 43 41 38 38 41 45 49 53 52 47 56 63 68 77 83 87 88 90 91 84 85 76
68 66 64 62 57 57 56 55 54 62 60 58 58 58 58 58 58 54 51 46 43 42 41 36 38 43 45 49 47 49 53 58 66 65 73 78 85 88 88 87 80 79 74
67 65 66 62 60 63 61 57 55 57 56 56 56 55 53 51 47 43 39 34 34 36 27 22 22 29 32 37 46 55 59 62 64 68 71 77 75 76 78 86 90 86 77
68 66 67 62 65 67 64 58 55 56 56 55 55 51 46 41 35 28 21 16 15 18 17 21 24 24 24 27 37 61 56 49 64 73 60 62 71 74 79 90 92 90 90
66 68 70 69 72 68 61 56 55 56 54 52 50 44 37 28 20 14 12 14 16 18 21 21 23 23 22 25 32 62 40 51 70 49 52 58 70 77 86 85 86 79 84
67 70 72 75 76 67 60 57 54 52 48 49 43 36 25 15 12 12 14 15 16 19 21 22 23 23 25 26 34 46 40 52 58 48 53 62 68 84 75 83 68 67 80
66 73 78 82 75 67 59 53 51 47 45 45 35 22 14 12 11 13 16 19 20 18 21 20 22 24 28 32 38 36 40 55 50 56 63 72 79 58 66 68 57 72 86
70 78 89 87 80 68 57 51 47 43 40 34 22 15 14 14 15 16 17 17 18 19 19 21 26 28 31 34 32 40 48 51 56 63 51 41 50 48 49 53 56 70 76
70 85 92 88 76 63 55 49 45 38 34 23 16 16 17 18 19 20 19 20 21 24 24 24 26 27 30 32 36 47 52 57 67 52 45 42 44 50 60 56 59 76 84
70 85 92 90 72 61 53 47 42 31 22 16 18 20 20 20 22 23 22 23 24 25 25 26 26 30 36 35 48 51 56 58 56 52 53 55 59 61 60 66 69 75 79
68 88 91 84 74 59 51 46 37 23 16 18 21 22 22 24 27 27 25 24 26 28 29 31 35 38 40 45 51 55 58 58 57 60 60 62 64 64 69 68 65 64 66
70 93 88 79 65 53 48 41 28 18 18 18 19 23 27 30 30 28 28 31 34 33 34 36 38 42 45 49 56 58 61 65 65 66 67 69 70 78 79 73 67 68 64
87 90 82 69 53 49 42 32 21 20 18 20 23 28 31 32 32 31 34 35 37 40 40 43 46 49 52 56 60 64 67 68 69 70 73 75 90 78 67 73 92 98 71
88 79 67 57 50 43 31 23 21 21 21 26 29 30 33 35 36 35 37 38 43 43 44 51 53 56 57 61 66 67 68 69 71 73 78 92 76 69 73 84 80 71 87
74 67 59 51 43 32 25 22 23 25 28 31 31 32 34 35 34 36 41 43 44 51 54 56 58 59 62 66 69 66 67 70 72 84 90 71 66 68 70 60 69 88 72
66 58 52 45 35 28 24 26 27 29 31 31 32 32 30 33 36 42 44 47 51 57 59 60 60 64 68 73 68 66 66 68 88 85 67 69 82 83 60 58 72 71 65
61 54 47 38 30 27 27 29 29 31 32 32 32 33 32 35 40 47 50 52 57 62 61 62 66 69 73 73 71 66 64 69 77 67 66 84 92 63 60 68 68 67 72
55 47 43 36 30 30 30 29 31 32 34 33 33 34 35 39 48 53 56 61 63 62 64 66 71 74 74 76 75 72 76 76 65 68 96 79 67 61 70 71 69 71 80
51 44 40 32 30 32 31 31 32 34 35 37 37 37 43 52 53 58 59 64 64 67 67 74 74 76 77 81 79 88 87 78 74 98 97 72 64 67 70 74 78 80 83
46 43 34 32 32 31 30 30 34 36 38 40 42 46 52 56 60 61 62 63 65 70 72 71 73 79 81 79 73 77 67 73 80 67 63 68 75 76 76 77 79 82 84
42 36 33 33 31 31 32 31 34 38 43 47 49 53 61 62 63 66 69 70 70 69 67 68 70 71 71 73 75 67 70 84 56 56 64 86 79 78 80 85 84 85 85

GFSMW_925_rhum_015.txt.gz
RH
53 56 51 45 44 43 45 56 60 64 65 68 72 81 93 85 68 64 61 60 60 60 56 56 56 55 77 86 91 94 93 92 94 100 95 85 82 82 81 80 82 82 74
51 55 57 50 47 45 43 43 49 64 73 76 84 85 67 60 54 52 48 45 42 40 38 37 37 38 48 56 64 73 78 80 80 91 91 87 69 63 79 79 80 81 80
52 55 56 60 53 52 48 45 43 42 46 64 50 47 49 52 54 51 48 46 42 39 37 36 36 36 39 55 62 68 71 68 62 66 78 79 78 79 63 67 69 76 81
56 56 57 59 60 58 52 49 47 47 47 45 47 52 64 66 66 54 48 44 42 40 38 36 36 39 48 58 63 62 68 67 65 65 56 71 75 70 71 43 56 57 63
56 59 61 63 60 56 56 54 52 53 52 51 51 52 57 56 50 46 43 41 39 36 32 28 28 32 46 53 56 59 64 68 73 72 72 72 70 67 72 80 58 65 60
60 60 63 62 62 61 58 56 55 59 55 51 51 50 50 50 49 46 47 49 47 46 25 18 26 41 47 53 54 60 65 69 70 74 76 78 79 79 79 80 72 68 63
62 61 61 64 68 65 62 60 57 60 54 51 51 50 47 43 41 40 40 32 34 38 24 18 24 39 37 41 44 45 65 61 62 75 81 80 72 60 63 71 73 75 67
62 61 62 67 72 68 63 60 59 60 55 51 47 42 37 31 25 19 19 30 36 38 20 16 22 22 22 25 35 42 65 43 58 78 68 53 47 50 64 74 86 85 72
64 63 66 68 76 72 64 59 58 58 56 48 41 33 26 19 14 11 10 13 18 28 14 13 12 13 16 27 36 40 48 42 44 57 47 51 56 69 75 84 89 78 88
64 65 65 76 80 68 62 59 54 54 50 42 33 25 18 12 9 9 10 12 13 14 15 15 18 27 32 34 34 38 40 37 43 43 47 58 61 67 77 68 64 70 67
63 66 69 82 78 65 59 56 50 48 44 35 26 18 13 11 10 10 12 14 15 17 21 25 28 31 30 31 34 34 34 39 46 49 56 61 57 45 48 57 57 55 53
64 67 78 83 73 65 56 51 46 44 38 28 19 14 12 11 11 14 16 17 18 20 21 22 28 31 32 34 33 35 40 46 50 52 63 53 46 44 44 47 51 58 61
69 73 84 78 71 63 53 47 42 40 30 21 15 12 12 13 15 18 20 20 18 19 20 26 32 33 34 35 36 40 47 51 53 54 56 50 50 50 53 61 64 66 66
70 79 84 80 70 60 51 45 38 34 24 18 14 13 14 18 22 23 20 20 22 24 23 27 32 34 38 40 39 50 54 55 55 56 57 56 56 57 63 64 66 68 71
72 81 85 77 67 59 51 45 36 27 20 16 16 17 20 24 22 21 22 24 25 27 29 31 36 40 42 35 52 56 58 59 59 60 59 60 64 68 67 68 68 72 70
70 83 83 75 67 58 50 45 32 22 18 19 20 23 23 23 24 25 26 26 29 30 30 38 42 43 42 50 57 62 64 63 64 64 64 64 67 68 72 69 66 66 77
67 84 82 76 64 54 49 39 26 20 19 21 24 25 28 27 27 26 27 31 34 34 42 42 42 45 47 54 61 65 67 66 64 65 66 70 70 78 79 75 72 89 72
76 87 80 71 56 50 42 31 22 20 21 22 24 30 31 28 27 28 31 33 41 46 46 45 48 49 51 61 65 69 66 66 63 64 67 70 83 73 65 67 99 66 60
84 84 73 57 52 43 32 25 22 21 21 26 29 31 30 31 30 30 34 39 49 48 47 50 51 53 57 63 72 70 67 65 65 66 67 91 68 60 68 99 72 65 65
80 74 60 51 42 32 27 23 24 23 26 29 31 31 31 31 32 35 40 42 46 52 53 53 58 59 60 69 72 67 66 67 68 75 84 65 59 64 96 69 64 67 70
67 58 51 46 37 29 25 26 25 26 29 31 31 30 30 32 35 39 40 44 50 57 59 59 58 63 67 72 69 65 65 70 86 92 71 65 63 98 69 58 61 69 68
64 54 46 37 31 28 26 27 25 28 30 33 33 31 30 33 35 40 44 49 59 63 62 59 62 66 70 70 70 66 66 70 77 76 69 75 98 64 59 59 64 65 67
60 53 42 34 31 30 28 26 29 32 34 34 32 32 32 32 38 49 55 60 64 66 63 64 69 71 71 74 73 73 80 74 68 71 88 75 53 52 64 64 63 69 79
52 47 42 35 34 31 28 30 34 35 34 35 34 32 35 47 48 52 60 67 68 68 67 70 69 75 78 78 78 89 89 75 85 97 61 56 54 66 70 66 72 77 82
51 47 39 32 33 32 32 33 33 35 37 36 35 37 44 51 60 64 65 67 69 74 70 69 71 80 83 78 74 72 67 74 92 57 60 60 74 76 69 71 75 78 82
47 39 33 32 33 33 32 34 36 37 38 40 47 50 61 64 64 68 69 74 75 70 69 70 71 73 72 74 70 65 71 84 60 62 67 75 80 76 74 77 81 83 82

GFSMW_925_rhum_021.txt.gz
RH
29 32 35 36 39 45 51 54 54 56 56 58 60 58 57 55 52 48 45 44 44 44 44 43 41 42 41 41 44 44 47 45 44 43 43 41 41 36 37 42 38 36 36
29 31 32 32 33 37 44 54 58 61 62 56 55 52 51 50 51 50 47 43 41 42 41 44 43 43 43 43 44 42 43 42 39 40 41 44 38 35 38 32 36 35 37
29 31 32 37 38 40 42 47 48 48 52 52 52 50 50 48 46 44 45 44 41 37 36 38 37 37 37 36 36 34 35 37 35 34 39 44 43 46 38 36 35 35 33
27 29 34 40 44 47 47 46 46 46 46 45 45 44 44 43 43 42 42 41 42 37 31 31 32 32 30 30 31 28 31 31 36 36 32 37 41 51 50 33 35 31 28
28 33 37 42 48 51 51 48 47 46 44 42 41 41 41 42 40 38 36 34 32 32 30 27 27 27 28 29 30 30 31 35 39 39 37 38 41 43 42 44 36 31 28
31 36 42 47 54 55 52 48 46 45 44 44 43 42 39 38 37 35 31 28 26 28 28 25 23 24 27 28 27 29 33 41 47 42 40 39 47 44 39 40 40 40 39
35 41 44 46 51 53 51 46 44 43 42 40 39 39 38 36 33 29 27 25 24 24 25 24 22 23 25 24 24 28 33 36 39 39 35 33 37 38 35 38 44 47 47
36 40 41 45 50 52 47 45 44 42 39 37 35 35 34 31 27 25 25 23 23 22 22 23 21 21 22 22 23 26 28 26 27 30 31 32 35 34 37 41 46 55 49
37 38 41 45 50 49 48 48 45 42 38 34 31 29 27 26 25 23 23 24 22 19 20 21 20 20 21 21 22 23 24 23 25 27 30 31 34 37 38 44 44 47 53
36 37 41 45 47 48 48 47 43 40 36 33 30 27 24 22 21 22 22 21 20 19 20 20 20 20 20 21 22 23 23 24 25 28 31 34 35 37 40 43 41 41 44
37 39 40 46 48 49 48 45 42 38 34 32 29 27 24 22 22 21 20 20 19 19 20 20 21 21 22 22 23 24 24 24 28 31 33 35 36 38 39 42 42 44 44
36 38 41 48 48 48 44 43 42 37 34 30 27 26 25 24 22 21 20 20 20 20 21 22 23 23 24 25 26 26 25 27 31 34 36 38 39 42 44 44 45 47 49
38 38 43 46 46 45 42 41 40 36 32 28 26 25 25 24 22 21 22 21 22 23 24 25 26 26 27 27 27 27 28 34 37 38 40 42 44 45 45 47 51 52 55
39 41 46 44 44 44 41 39 39 35 30 27 26 27 26 25 25 24 25 24 24 26 28 29 30 29 27 27 28 30 40 44 45 46 46 46 45 45 48 52 56 63 71
42 43 46 44 44 43 40 37 38 32 28 26 26 27 28 26 26 27 27 26 28 29 30 31 31 29 28 26 32 43 50 54 54 51 48 44 44 46 48 49 57 71 83
41 42 45 44 45 43 40 37 34 30 27 25 24 26 26 26 28 28 28 28 29 31 31 31 30 29 29 30 38 47 58 60 57 52 47 45 44 43 46 54 56 61 62
39 44 47 47 47 44 41 39 33 28 26 25 24 24 25 26 26 27 27 28 30 30 31 30 30 29 32 34 40 51 63 64 55 49 47 46 45 49 60 61 61 61 60
38 44 48 51 49 45 43 34 29 27 26 25 23 24 25 25 26 26 26 28 30 30 31 30 31 32 32 35 43 55 63 57 54 50 49 49 54 62 62 60 89 89 83
44 50 53 53 48 45 36 32 28 26 25 24 23 24 25 26 26 26 28 31 31 32 33 32 33 32 31 36 47 58 60 60 57 54 54 58 62 60 61 79 97 72 60
56 59 55 50 46 40 34 32 28 24 23 23 25 26 26 27 27 28 31 32 33 33 33 33 31 30 34 41 50 55 61 62 60 62 72 63 56 60 77 79 58 66 62
58 54 50 45 38 34 33 30 26 24 25 27 27 28 27 28 29 32 33 34 33 33 32 31 30 35 39 44 48 54 58 62 64 83 72 66 58 75 74 52 57 59 77
54 48 44 39 36 33 33 28 24 26 27 29 29 29 29 30 32 32 33 33 33 32 30 31 36 41 43 47 51 54 57 59 78 79 69 63 92 66 51 54 54 59 61
50 47 43 38 35 32 28 25 26 28 28 28 28 28 30 32 32 35 34 34 32 31 33 38 44 49 54 57 56 57 58 65 66 65 66 95 58 52 54 56 57 59 65
50 47 42 39 37 34 29 27 29 31 31 28 28 31 32 35 35 34 34 32 32 39 45 54 59 64 65 63 63 66 76 73 73 87 95 56 54 54 57 61 62 65 68
52 49 46 43 37 30 28 29 32 32 32 30 32 33 34 36 36 34 32 35 38 48 59 63 66 69 67 65 63 66 67 76 85 74 63 58 60 65 66 65 66 69 78
52 51 49 40 32 28 27 30 34 35 36 36 35 35 38 37 34 33 35 37 43 47 50 55 59 61 62 62 63 64 69 78 66 63 62 65 70 71 70 70 72 83 87

GFSMW_925_rhum_024.txt.gz
RH
36 33 36 41 48 52 55 59 61 62 61 63 66 58 53 49 46 44 43 42 41 41 40 42 42 41 41 42 41 40 38 37 38 37 42 32 37 29 36 21 28 24 29
39 36 35 37 45 55 59 60 62 58 58 56 56 54 52 51 48 43 42 39 36 36 35 33 35 34 33 34 33 32 34 35 34 42 41 61 40 38 24 35 35 34 34
40 40 41 40 42 49 50 55 58 54 53 51 51 49 50 48 46 45 42 41 36 29 27 28 27 30 29 30 29 29 31 34 33 38 43 66 64 48 39 38 36 31 22
37 40 47 48 47 47 47 48 48 50 50 50 51 49 44 44 43 42 40 37 34 30 24 25 25 26 27 28 27 28 30 35 41 45 39 39 42 55 58 43 39 32 29
37 45 53 50 52 50 49 47 45 44 43 42 42 43 43 40 38 36 33 29 30 28 26 24 23 24 25 24 26 26 30 36 41 50 46 44 43 40 59 59 43 38 35
41 50 51 54 56 51 47 46 45 44 43 42 41 40 39 38 34 30 28 26 25 25 24 23 22 22 23 24 24 25 24 30 32 36 37 42 43 43 47 53 46 43 39
46 55 62 64 58 53 48 45 44 42 41 40 39 38 35 32 29 26 25 24 24 23 21 22 21 21 22 22 22 23 23 27 27 30 27 32 33 36 43 42 46 48 43
49 54 60 59 57 52 45 43 41 39 37 36 35 34 30 27 25 24 24 23 22 20 19 20 20 20 20 20 21 22 23 24 25 25 26 28 30 34 37 43 50 52 54
51 52 58 57 55 49 46 43 40 37 33 31 28 26 25 24 23 23 23 22 20 20 20 20 19 19 20 21 21 22 24 24 24 25 27 29 34 36 37 40 44 55 62
48 50 55 56 51 49 48 43 40 35 33 30 27 24 23 22 22 22 20 20 19 19 19 20 20 21 22 22 23 25 25 25 25 27 30 33 37 39 40 42 45 48 51
46 50 54 52 50 49 48 42 38 34 32 30 27 25 24 23 22 21 21 19 19 20 20 22 22 24 25 25 26 27 27 27 27 31 36 39 40 42 44 46 49 50 51
45 50 54 53 51 50 46 41 37 34 31 28 27 26 25 24 22 21 21 21 21 22 23 24 26 27 28 28 28 28 28 29 37 41 45 46 46 48 48 50 49 52 54
49 51 56 56 52 48 44 42 37 34 29 27 26 26 26 25 24 23 23 24 24 24 26 28 29 30 31 30 29 28 31 39 45 51 53 54 53 52 50 48 51 52 55
47 50 58 58 50 46 42 40 37 32 28 27 27 28 27 26 26 25 26 26 26 27 28 30 31 32 32 30 29 30 37 45 54 60 60 59 56 52 50 50 50 54 63
49 52 59 57 50 45 41 39 35 31 28 28 28 28 27 26 25 27 27 27 27 29 30 31 32 32 31 30 32 39 44 50 59 64 64 60 52 51 48 49 54 60 59
49 54 56 57 52 44 39 38 33 28 27 26 26 26 25 25 27 27 27 27 28 29 30 31 31 31 31 34 38 41 46 54 63 67 62 57 53 50 52 55 54 56 75
51 53 58 56 49 43 38 36 32 28 26 25 25 24 25 25 25 26 26 26 28 30 31 32 32 32 33 36 38 41 48 56 62 63 60 58 55 57 61 67 70 96 87
50 57 62 55 46 42 40 34 29 26 27 26 24 24 24 25 26 26 26 28 30 32 33 34 34 34 34 34 37 44 51 57 61 62 62 62 62 69 65 70 91 95 87
60 62 56 49 45 42 32 30 27 27 25 25 23 24 25 26 26 27 28 30 33 34 34 34 34 33 32 34 41 47 52 57 60 63 65 70 73 68 64 74 98 87 72
63 60 52 47 43 34 32 28 27 25 24 24 25 26 26 27 27 28 30 33 35 35 34 34 33 31 33 37 45 49 55 58 63 67 81 79 67 59 73 80 66 73 64
58 52 49 46 37 35 32 29 25 24 24 25 27 28 28 28 29 32 32 34 34 34 34 33 32 35 40 47 52 57 59 62 69 93 86 82 64 85 74 59 60 59 66
55 49 41 37 34 33 30 27 25 26 26 28 28 28 28 30 32 33 35 35 35 34 33 35 42 48 54 62 63 61 60 65 81 78 72 69 88 62 59 58 58 62 62
51 43 40 36 34 33 29 26 27 27 28 28 27 28 30 33 35 36 35 36 34 33 37 44 52 62 66 68 68 65 66 72 70 72 75 88 64 58 58 61 61 63 70
51 43 39 37 35 30 25 27 28 28 29 29 28 31 33 37 36 37 36 34 33 37 43 53 59 63 64 67 66 66 75 72 77 92 96 70 60 60 64 67 68 71 79
50 43 42 39 36 31 28 28 30 29 30 31 34 35 36 38 39 38 35 36 39 43 50 53 56 59 61 60 57 60 60 68 86 70 71 63 67 73 72 71 72 76 88
52 50 46 38 31 28 28 30 29 29 32 38 39 40 42 44 42 38 40 42 46 50 51 52 53 54 55 56 58 58 64 72 65 67 67 73 76 77 76 80 88 89 92

GFSMW_925_rhum_027.txt.gz
RH
44 39 42 47 52 57 58 59 64 66 65 66 63 59 50 49 48 46 42 38 35 34 34 32 28 27 31 32 27 27 26 23 30 40 35 23 28 31 24 10 33 16 37
49 50 45 52 61 64 63 65 65 66 66 64 60 54 48 45 42 38 35 33 30 27 25 25 25 24 25 24 24 28 28 30 35 48 51 63 45 33 18 37 23 40 32
49 53 55 55 56 61 61 60 62 64 61 59 54 50 46 43 42 41 39 34 29 26 24 23 22 22 22 22 23 26 30 39 35 36 47 64 69 46 39 28 38 36 27
47 51 58 58 52 53 56 56 54 54 54 53 49 48 48 47 45 41 36 32 29 27 22 21 22 22 22 20 24 24 28 25 38 32 44 45 43 70 62 44 35 39 40
47 56 60 60 54 51 50 52 52 51 50 50 48 44 44 43 39 34 32 30 27 25 22 20 21 21 21 22 22 23 23 24 36 32 34 42 36 43 59 50 44 43 40
54 61 64 60 55 48 46 45 45 46 46 45 43 40 38 34 31 28 26 25 24 23 20 19 19 20 20 21 21 22 21 24 24 27 31 32 42 50 46 46 46 47 40
61 68 70 67 59 50 47 45 43 43 42 41 40 38 33 30 28 26 25 24 23 20 19 19 18 19 19 20 20 21 22 22 25 25 25 25 32 33 41 46 47 46 45
64 70 70 68 60 52 47 43 41 40 38 37 34 31 29 27 26 25 24 22 20 20 19 18 18 18 19 20 21 22 23 24 25 25 26 29 29 32 39 45 51 57 47
66 71 70 67 59 51 45 41 38 36 35 33 31 28 26 25 25 23 22 20 18 18 17 18 18 19 21 23 24 25 26 26 27 27 29 30 33 40 42 44 49 55 68
64 68 69 67 57 49 43 39 35 32 29 27 26 25 24 24 24 23 20 18 18 18 18 19 20 22 24 26 28 28 27 28 28 32 35 38 42 47 48 49 51 53 57
61 66 67 62 57 49 42 38 35 32 29 26 25 24 24 24 24 22 20 19 18 19 20 22 24 26 28 29 30 29 29 29 34 36 43 50 52 55 56 56 56 58 58
60 65 65 62 60 52 44 37 34 32 29 27 28 26 25 24 24 23 22 20 20 21 22 25 27 29 30 31 32 31 30 33 38 44 52 57 61 62 62 60 58 56 55
62 65 64 62 60 53 43 38 35 30 28 28 28 27 26 26 25 24 22 21 21 22 24 28 30 31 32 32 31 31 32 39 43 50 58 62 66 67 65 62 58 57 57
59 64 63 63 59 53 45 39 33 29 27 27 27 28 27 26 24 23 22 22 22 24 27 29 30 31 32 31 32 36 41 44 48 52 56 62 68 68 62 58 57 62 64
60 64 64 64 58 54 46 38 32 28 27 28 29 29 27 24 23 22 21 22 24 27 29 30 31 32 32 33 39 43 44 45 48 52 59 64 65 60 57 57 58 61 66
58 64 60 62 58 52 45 36 31 29 29 29 30 26 25 23 22 22 23 24 26 28 31 32 33 33 34 39 42 44 44 46 50 56 60 64 65 62 59 60 61 64 69
61 63 60 58 54 48 41 34 29 27 27 27 26 25 23 22 23 24 24 26 28 31 33 33 34 34 34 39 40 43 46 49 51 57 61 65 66 68 75 76 70 75 83
58 61 61 56 51 44 38 31 29 27 27 26 25 24 23 22 24 25 26 29 32 33 35 34 34 34 32 39 41 46 51 55 58 60 63 67 74 85 71 72 77 97 94
61 67 60 55 46 40 34 31 28 28 27 25 24 23 22 24 25 27 29 32 33 34 34 34 34 33 36 41 48 54 61 62 64 66 69 80 77 70 62 74 98 96 87
62 57 53 44 38 34 31 28 28 27 26 24 24 23 25 26 27 30 32 33 35 35 35 34 33 35 42 52 60 64 66 66 67 82 90 77 64 58 85 85 78 75 64
56 51 44 39 35 31 30 30 27 26 25 24 24 25 27 28 31 33 34 35 36 35 34 34 36 42 51 61 65 65 64 68 89 88 79 74 68 97 64 62 61 64 73
54 46 42 40 34 31 31 27 26 26 25 24 26 27 28 32 34 36 36 36 36 35 35 38 44 51 59 64 65 63 63 75 74 78 74 80 94 61 60 62 64 66 70
45 41 40 37 33 30 32 26 27 26 26 26 27 29 32 35 37 37 38 37 36 38 42 47 55 60 61 61 64 66 66 63 63 80 84 83 64 62 66 69 68 70 79
47 41 38 36 32 30 27 28 28 25 26 28 30 34 36 41 38 39 38 39 42 45 53 57 59 61 61 61 60 61 63 66 92 93 83 66 63 69 71 73 73 80 92
46 40 40 36 31 28 29 28 27 26 28 32 35 37 40 42 42 41 43 47 49 52 57 58 58 60 60 59 58 60 63 75 80 68 70 67 74 78 76 74 77 83 89
48 45 41 39 32 30 30 28 27 28 31 34 37 41 46 45 45 47 49 50 55 57 56 57 57 58 59 59 60 61 72 72 66 70 71 79 82 81 79 82 88 89 89

GFSMW_925_rhum_030.txt.gz
RH
44 41 43 45 51 53 52 47 47 68 67 66 63 60 55 52 53 52 48 45 37 32 28 25 25 24 24 22 20 18 18 24 26 38 26 19 30 31 24 24 25 17 41
52 57 58 61 62 64 65 72 74 69 66 64 60 57 52 48 44 37 33 30 27 26 25 24 23 22 19 17 20 23 24 28 31 39 60 66 45 37 15 37 23 38 19
54 62 72 72 69 69 70 73 74 68 64 61 57 50 45 39 35 33 30 28 27 25 24 22 21 20 18 18 22 24 23 29 31 42 44 59 66 54 37 26 39 24 40
53 61 74 73 70 68 67 68 68 65 62 60 54 48 45 43 40 35 31 29 27 25 22 20 20 19 19 19 21 23 21 25 38 31 34 41 46 63 66 44 38 36 35
53 62 70 67 65 63 63 65 63 61 58 55 50 42 42 43 39 34 30 27 25 23 21 18 18 18 19 20 20 21 22 25 27 33 40 40 35 33 75 54 43 38 40
55 67 69 66 64 60 58 58 57 56 52 47 44 41 41 39 36 32 28 25 25 21 20 18 17 18 18 19 20 22 22 24 25 27 26 29 43 52 50 44 44 47 41
66 74 71 67 62 58 56 56 54 56 50 46 43 40 37 32 28 27 26 25 22 20 19 17 16 17 19 21 22 23 24 25 26 27 28 31 34 34 40 46 50 50 48
66 69 68 64 61 57 51 50 50 49 45 41 38 33 30 29 28 27 25 23 20 19 18 18 17 18 21 23 24 25 26 26 26 28 29 34 33 37 42 52 58 62 52
70 72 69 64 61 55 49 45 42 40 38 35 31 29 28 28 27 25 23 19 18 18 17 18 18 21 24 26 27 28 28 28 29 30 34 36 40 47 51 54 58 66 76
76 74 67 66 61 51 45 42 39 36 33 30 29 27 27 27 26 23 20 18 18 17 17 17 21 24 27 29 30 30 30 30 30 35 40 45 50 57 59 61 64 65 67
77 73 70 65 58 48 42 38 35 31 28 27 26 26 26 25 24 24 21 19 18 18 18 22 25 27 29 30 32 32 31 32 34 41 46 51 56 61 64 68 69 69 67
75 74 70 67 59 50 42 36 32 28 26 26 26 26 25 25 25 24 22 20 18 19 23 25 27 29 31 31 32 32 33 38 42 44 49 53 59 61 67 70 71 70 68
76 75 71 65 59 52 44 37 32 28 26 27 27 26 26 27 26 23 20 19 20 22 25 28 30 31 32 32 32 36 42 44 45 47 51 54 58 64 68 71 72 66 64
74 74 70 66 58 51 44 38 32 29 29 29 29 28 29 27 24 21 20 21 22 24 27 30 31 32 32 32 37 44 46 46 46 47 50 54 58 64 70 67 64 71 67
75 71 70 68 59 53 45 37 31 29 29 29 30 30 28 24 22 21 21 22 24 27 30 32 31 32 33 36 46 47 46 47 48 50 52 57 62 64 61 62 66 68 82
71 69 67 67 61 52 44 35 31 29 28 30 31 28 25 23 22 22 22 23 26 30 32 33 33 33 34 44 46 48 49 51 54 58 59 61 67 66 65 66 65 68 68
69 68 67 63 58 49 40 35 30 29 30 32 28 26 24 22 22 22 23 27 30 32 33 33 34 34 33 45 49 53 57 60 63 63 64 67 70 77 83 78 65 70 80
67 65 65 61 54 45 38 32 31 30 30 28 26 25 22 21 22 24 28 30 32 34 34 34 34 34 36 50 57 62 66 66 66 67 69 71 85 78 64 65 84 97 85
66 64 62 57 49 41 35 31 29 28 28 26 25 24 21 23 24 28 32 33 35 35 35 34 34 36 43 51 61 65 66 68 69 70 73 85 75 66 67 96 83 79 74
68 63 55 49 42 37 32 30 30 29 27 25 25 22 23 25 28 32 34 36 36 36 36 35 37 42 49 54 64 64 65 69 71 82 94 80 68 67 87 64 68 72 69
54 49 46 42 38 34 32 31 30 28 26 25 23 24 25 28 33 35 36 37 36 36 38 41 46 52 55 58 66 64 64 66 90 81 73 74 79 80 61 62 69 73 82
49 45 42 39 34 32 31 30 28 26 25 24 24 26 29 33 37 37 37 36 38 41 44 50 55 58 59 61 66 63 62 69 64 77 83 94 79 64 65 69 72 73 75
47 44 41 37 33 33 34 28 28 26 25 25 26 30 34 39 39 39 39 40 43 48 54 59 61 63 62 62 63 66 64 63 70 86 77 74 68 67 73 75 74 72 80
46 43 39 38 35 32 30 29 28 26 24 26 31 34 37 46 41 41 42 47 52 56 63 63 64 65 65 64 64 66 64 76 82 83 81 71 68 73 76 76 76 79 82
44 40 38 36 34 29 29 29 26 25 26 30 35 38 43 44 44 44 47 53 56 60 62 62 62 65 66 65 63 62 65 69 71 69 74 72 77 82 80 79 80 83 86
45 42 35 32 32 30 30 29 26 25 28 34 38 44 46 46 47 50 51 49 61 62 61 61 62 63 65 63 64 64 68 68 71 76 76 82 85 85 84 86 89 89 88

GFSMW_925_rhum_033.txt.gz
RH
39 38 38 41 43 42 44 46 45 62 67 73 68 66 60 59 64 59 52 53 48 33 27 26 25 23 22 17 16 15 15 20 21 21 25 19 31 35 32 16 26 22 25
48 49 50 58 58 55 56 54 54 64 69 69 65 61 55 50 46 39 34 30 27 26 26 25 24 21 17 16 17 18 17 19 31 48 61 63 36 36 20 18 19 23 24
50 57 72 72 70 70 72 68 64 68 67 65 60 53 47 39 32 29 27 26 27 26 25 24 22 19 17 17 20 20 20 28 26 40 34 47 58 63 32 27 34 30 33
47 53 80 84 78 75 80 75 70 68 64 60 56 53 44 40 32 29 28 27 27 25 23 21 19 18 17 17 20 20 22 25 33 28 29 33 46 58 61 42 35 36 32
51 63 78 80 77 76 79 75 69 63 60 58 57 53 42 36 32 30 28 27 25 23 21 18 17 16 17 18 19 20 22 24 27 32 37 38 34 42 72 53 46 35 32
54 63 79 78 78 76 74 71 66 61 59 58 54 48 38 36 32 30 27 25 24 22 19 16 16 16 17 19 21 22 23 25 26 27 29 34 45 55 55 53 45 43 37
64 81 80 79 75 73 71 68 64 62 57 52 44 39 37 35 32 29 27 26 23 20 17 16 16 17 20 22 23 25 26 27 27 29 30 34 37 39 44 51 51 50 49
68 74 76 74 71 69 67 65 62 57 51 45 42 39 36 31 28 28 26 24 21 18 17 17 18 20 22 25 26 28 28 28 28 29 31 36 38 46 51 58 64 70 56
71 74 72 69 67 64 62 60 57 52 47 43 38 33 30 28 28 26 24 21 19 18 18 19 21 24 26 28 29 29 30 30 30 31 36 42 46 51 54 57 65 74 81
74 74 68 66 63 59 57 55 51 46 39 34 31 29 29 28 26 24 21 19 18 18 18 20 24 26 29 30 30 30 30 31 33 35 42 45 49 53 56 58 64 72 77
79 73 68 64 59 54 50 47 43 37 32 30 28 28 27 26 25 25 22 19 18 19 20 24 26 28 29 30 29 29 32 37 41 43 46 47 50 54 58 60 66 76 78
74 73 69 62 56 52 46 40 35 31 29 28 27 27 26 26 27 25 21 20 19 21 24 26 28 29 30 28 28 32 39 44 46 47 47 48 50 56 60 64 73 76 76
81 75 69 62 56 51 44 37 32 28 27 27 27 26 27 28 26 23 21 20 21 24 26 28 30 29 30 29 29 42 46 48 47 48 49 51 55 61 65 68 75 78 76
79 75 69 63 56 50 43 35 30 27 27 28 28 28 29 27 24 22 20 21 23 26 28 30 30 30 30 29 39 48 49 49 50 53 56 58 60 64 70 68 66 79 72
83 75 72 66 57 51 43 35 30 29 29 29 30 30 28 25 23 21 21 22 25 29 30 30 29 29 30 33 50 52 54 56 59 63 62 62 68 66 63 64 65 69 80
80 75 70 65 56 49 42 37 32 30 30 31 31 29 26 23 21 21 21 25 29 30 32 31 31 31 31 39 53 58 62 66 66 63 62 64 70 69 68 68 67 67 64
78 75 72 61 54 48 40 37 32 31 31 32 30 27 24 22 21 22 25 29 31 32 32 32 32 32 33 47 57 62 68 66 64 65 66 70 73 80 85 82 69 86 95
74 72 69 63 53 44 38 34 31 31 33 31 28 25 22 21 22 25 30 32 33 34 34 33 33 35 37 54 59 65 68 65 65 67 70 74 85 87 69 80 99 80 75
70 70 66 59 48 42 37 33 32 33 32 29 27 24 21 22 25 30 33 34 34 34 34 35 37 41 48 55 63 67 66 66 68 70 82 87 82 70 73 90 77 71 74
72 69 59 51 45 40 35 34 33 31 30 28 25 22 23 25 30 33 36 36 35 35 36 36 41 48 54 55 67 67 66 68 69 83 79 75 69 67 86 67 69 76 72
65 58 52 47 42 37 34 34 32 31 28 26 24 24 26 30 34 36 36 36 36 37 38 46 50 55 58 60 68 66 65 66 69 66 78 80 78 79 64 64 72 78 88
55 49 45 42 38 35 33 33 31 29 27 25 25 26 31 34 37 36 37 37 39 43 47 57 58 60 60 63 68 67 65 64 63 76 81 86 78 67 67 72 76 75 75
48 45 42 40 36 34 33 32 30 27 26 25 27 31 35 39 39 39 38 39 44 52 59 65 65 65 66 64 68 71 67 63 72 78 72 73 72 69 75 79 77 76 84
46 42 40 39 37 34 33 31 28 27 25 26 31 35 38 44 42 41 44 47 52 60 66 68 68 68 68 69 68 69 67 78 77 78 77 75 71 76 78 80 80 83 85
44 41 40 39 36 32 31 29 28 24 25 31 35 40 43 43 44 46 49 52 54 65 66 65 65 68 70 70 67 66 68 72 71 72 78 76 81 84 84 82 83 84 88
44 41 39 36 34 32 31 28 26 24 28 33 38 44 45 46 48 51 51 48 61 66 65 64 63 65 67 66 68 68 70 69 75 80 81 86 88 88 88 89 89 91 91

GFSMW_925_rhum_036.txt.gz
RH
45 39 33 34 38 40 44 47 56 73 76 83 80 74 74 71 68 66 62 62 50 40 30 26 25 24 24 19 16 14 13 18 16 19 19 20 21 33 34 27 20 23 24
50 46 42 47 47 42 45 50 60 75 77 77 74 71 69 60 58 55 47 43 30 27 27 27 26 22 18 17 15 14 16 22 23 38 49 56 29 21 16 17 24 25 21
51 52 59 59 60 58 55 55 60 73 74 73 69 65 63 51 40 32 28 27 27 27 27 26 22 18 16 16 17 18 18 22 22 39 31 39 46 67 26 19 22 31 26
52 52 61 78 73 67 68 63 64 71 72 69 66 62 51 39 34 28 27 26 26 26 24 22 18 16 15 16 18 20 21 23 29 27 25 28 39 54 59 36 32 37 33
50 54 64 66 73 75 79 74 69 70 69 64 62 54 46 38 29 28 26 26 25 23 20 17 15 15 15 17 19 20 22 24 26 30 34 33 32 45 72 52 49 39 37
56 53 62 79 83 86 86 76 71 68 64 61 56 53 45 32 29 27 26 25 24 21 18 15 15 16 17 19 21 23 24 25 26 27 30 34 45 53 53 62 50 51 42
61 81 90 92 92 89 83 74 69 64 60 58 55 51 40 32 30 28 27 25 22 19 17 16 16 17 20 22 24 26 26 26 27 28 30 34 37 41 48 56 60 57 54
72 80 84 87 87 87 81 74 68 63 60 56 54 44 36 32 30 29 27 24 21 18 18 17 18 20 23 26 26 26 27 28 29 30 32 35 40 45 50 57 66 70 57
80 84 87 84 84 84 78 73 67 63 57 51 43 37 34 30 29 27 25 22 19 18 18 19 21 24 26 27 27 26 27 28 31 34 36 41 45 47 51 54 59 74 79
83 89 87 81 78 77 73 68 62 55 48 44 39 33 30 28 27 24 22 20 19 18 19 21 23 26 28 28 27 25 27 32 36 41 45 46 47 49 51 54 60 64 79
83 85 80 73 69 67 64 58 53 47 41 36 31 29 28 26 24 24 21 20 18 19 21 23 26 28 28 28 26 26 31 38 44 46 47 48 48 50 53 57 62 69 78
85 79 73 66 62 59 54 50 44 39 34 31 29 27 26 26 26 23 20 19 18 21 23 26 27 27 27 27 26 28 37 47 49 49 50 53 55 57 59 61 67 74 79
82 75 68 64 58 52 47 42 38 33 30 28 28 27 27 28 25 22 20 19 20 23 26 28 28 26 26 25 25 40 50 52 53 55 58 61 62 62 65 70 75 76 80
81 74 67 61 54 47 42 38 35 30 28 28 28 28 29 27 23 21 20 21 23 26 28 29 28 27 26 26 35 53 56 59 62 64 63 58 60 69 71 72 69 72 72
81 73 66 60 52 46 40 36 32 29 28 28 29 30 28 25 22 20 21 23 27 29 29 29 27 27 27 30 52 57 60 65 69 64 59 62 70 74 71 69 71 72 81
77 71 63 58 52 44 40 37 33 30 29 31 32 29 26 23 21 21 22 27 29 30 30 29 28 30 30 35 56 61 63 68 68 65 64 67 72 75 73 72 70 70 78
76 70 62 55 49 43 38 37 32 31 32 33 31 28 25 22 22 23 27 30 31 31 31 31 32 31 34 47 61 62 66 69 66 65 66 70 76 79 81 82 83 86 90
76 71 62 56 49 42 38 34 32 33 34 32 29 27 24 22 23 27 31 32 32 32 32 32 33 35 38 55 62 66 68 69 65 65 68 74 81 81 77 82 98 90 78
74 70 61 54 46 41 37 35 35 34 34 30 28 25 22 23 27 31 33 33 34 32 32 35 35 42 44 54 66 69 69 68 68 68 72 80 76 74 77 96 86 75 75
74 70 59 50 45 42 37 36 37 35 32 30 26 23 23 26 32 34 34 35 34 35 35 33 41 47 51 53 70 68 69 70 71 73 68 73 73 70 87 67 72 77 74
70 61 54 49 45 40 36 38 36 34 31 28 25 24 27 32 35 36 36 35 35 36 36 42 45 48 57 60 70 68 69 70 71 68 73 82 74 77 66 67 74 80 87
63 55 50 45 42 38 36 37 35 32 28 25 26 28 33 36 37 37 37 37 38 40 43 54 53 56 61 64 72 70 70 67 67 75 83 78 76 70 70 74 79 78 78
53 49 46 44 40 37 35 35 33 29 27 25 28 33 38 39 39 39 39 41 42 47 55 66 69 67 68 65 69 74 74 67 73 80 73 77 75 72 78 82 81 80 86
50 46 44 42 41 36 34 32 30 27 25 28 34 38 43 41 42 42 43 45 46 53 66 71 72 70 69 71 70 73 71 76 86 79 84 79 73 78 81 83 82 86 86
46 43 42 42 40 35 32 30 28 25 27 33 37 42 42 43 44 45 46 48 48 67 67 68 67 69 71 70 68 69 71 75 73 75 81 78 84 87 86 85 86 87 89
46 44 42 40 37 33 31 29 27 24 28 36 41 46 45 46 45 45 45 45 54 66 67 65 65 66 69 69 72 72 74 72 78 83 84 89 91 91 90 91 91 92 93

GFSMW_925_rhum_039.txt.gz
RH
43 43 40 37 34 32 38 44 52 72 83 91 93 89 88 86 84 84 77 68 67 53 46 27 26 27 26 19 16 14 14 16 14 21 25 23 20 38 39 23 19 27 25
46 44 43 38 37 34 42 50 61 79 85 86 83 81 82 75 74 65 60 55 50 32 26 27 28 24 19 16 14 13 17 22 23 31 39 29 23 27 27 22 25 22 27
39 40 45 46 39 46 46 54 64 82 84 82 80 78 73 67 56 46 44 34 30 27 28 27 25 19 16 14 15 15 15 31 32 25 27 25 25 37 31 25 30 32 27
36 39 44 48 56 47 51 55 66 80 80 79 76 76 68 55 46 38 33 27 26 27 26 24 19 16 14 15 16 18 18 20 33 32 29 27 38 29 28 34 32 36 32
36 41 46 45 51 58 62 64 70 77 77 74 73 69 65 52 38 30 27 26 24 24 21 18 16 15 15 16 18 20 21 22 29 36 38 40 39 50 46 32 29 33 35
41 42 43 49 67 68 75 75 73 75 73 70 68 66 61 45 31 28 26 24 22 20 18 16 15 15 16 18 20 22 23 24 25 26 31 38 36 35 38 38 37 40 35
53 56 65 73 85 94 90 81 74 72 68 65 61 59 50 37 30 28 26 23 21 18 17 16 16 17 18 20 23 24 24 25 26 28 33 33 45 47 47 48 43 43 44
54 59 64 74 82 94 89 79 75 70 64 60 55 49 40 35 32 28 26 24 21 19 17 17 17 19 21 24 24 24 25 26 27 30 32 34 43 49 52 52 52 53 39
49 65 75 79 86 92 85 78 73 67 62 58 53 46 42 36 29 27 25 22 20 19 18 18 20 22 24 25 24 23 23 25 30 34 39 42 47 50 56 58 59 58 57
54 71 79 84 89 89 84 76 70 64 60 57 52 45 32 30 28 25 23 21 20 18 18 20 22 25 26 25 23 22 23 28 36 45 47 49 51 55 58 61 63 64 63
60 76 84 85 87 82 74 67 63 58 53 47 39 33 30 27 25 24 22 21 18 18 20 22 25 26 26 24 22 22 29 38 45 48 52 53 56 60 62 64 66 65 65
83 87 80 76 75 69 63 57 51 48 43 38 32 28 26 25 24 23 21 19 19 21 22 25 26 26 24 23 23 27 39 49 52 55 57 62 62 63 62 62 64 70 69
83 76 73 71 65 60 52 46 43 40 36 31 28 26 25 26 24 22 20 20 21 23 26 27 26 24 24 24 25 37 51 56 60 62 65 66 63 62 62 68 73 73 75
78 75 69 63 56 50 43 41 39 35 31 29 27 27 28 26 23 21 21 22 23 26 27 27 26 25 25 25 34 50 58 61 64 67 66 66 66 68 74 77 74 76 73
78 71 64 55 48 44 40 39 37 33 30 29 30 29 27 24 22 22 22 24 26 28 28 28 26 26 26 29 54 60 62 63 68 69 64 66 71 75 74 72 72 70 76
76 67 59 50 45 41 39 38 36 34 30 32 31 29 26 24 22 22 24 28 29 30 29 28 28 29 29 31 60 64 65 68 72 68 66 68 69 77 74 72 71 73 76
72 64 56 48 43 40 38 37 37 33 33 33 31 28 25 23 23 25 28 30 32 31 30 29 30 30 31 44 64 65 68 71 70 68 68 70 73 76 81 82 79 78 96
69 60 53 47 42 40 39 38 36 35 35 33 30 27 24 23 25 28 30 32 32 31 31 31 31 32 36 47 65 68 71 72 70 69 71 76 76 78 78 75 96 94 75
65 57 52 46 42 41 39 38 39 37 35 33 29 26 23 24 28 31 34 34 33 32 32 33 34 39 42 49 70 71 70 70 71 73 75 76 70 71 66 87 92 71 68
64 59 51 45 42 42 39 40 41 38 36 32 27 24 22 26 31 34 34 35 34 34 33 32 40 45 50 50 71 71 70 72 69 72 69 68 73 68 77 77 73 75 68
64 55 49 44 44 41 39 41 39 39 32 27 24 24 27 31 34 35 36 35 35 35 32 35 42 47 55 58 72 72 70 72 72 67 68 74 72 82 71 68 71 76 87
60 53 49 46 43 40 38 39 39 33 28 25 25 30 33 35 36 36 37 38 38 36 40 50 50 54 56 62 72 72 73 72 68 70 78 76 79 72 72 74 80 80 81
55 50 46 46 43 40 37 38 36 29 27 26 31 34 37 38 39 40 40 41 41 45 56 67 67 67 66 66 68 76 75 69 74 81 74 77 77 72 75 80 82 84 80
51 48 45 43 42 38 36 34 30 28 26 30 37 40 39 41 42 42 42 46 48 56 68 69 68 70 69 70 72 74 72 75 89 76 81 80 73 78 82 80 78 80 82
48 45 43 43 43 37 34 30 28 26 30 34 39 43 42 43 43 43 45 49 54 67 67 69 69 67 67 67 70 72 73 82 76 75 79 71 75 78 78 80 82 82 84
46 44 43 42 40 34 31 30 27 26 28 38 44 44 44 44 45 45 43 43 46 63 66 64 66 66 70 72 75 75 80 74 78 80 75 79 82 82 84 86 88 89 91

GFSMW_925_rhum_042.txt.gz
RH
26 29 31 33 35 34 34 35 40 50 63 68 71 77 78 83 88 89 88 82 74 71 61 46 34 32 30 26 25 27 28 28 29 23 19 26 29 39 39 32 28 32 30
19 21 27 29 32 35 36 38 46 56 66 69 70 70 80 92 90 85 78 71 66 64 52 34 33 30 28 26 25 26 27 28 32 24 28 21 20 27 34 24 31 25 28
19 18 17 24 31 35 36 41 48 62 69 70 73 78 85 82 73 66 66 58 54 44 32 32 32 29 28 28 29 30 30 27 32 30 24 21 21 22 20 24 23 26 24
22 21 19 18 27 34 40 44 54 65 71 76 73 74 74 73 64 58 57 48 40 34 31 31 29 27 28 30 28 29 27 28 26 29 28 32 26 21 21 20 22 25 25
19 21 23 22 23 33 43 52 60 67 71 71 70 72 70 67 60 56 44 35 30 29 28 29 28 28 29 30 31 31 29 28 29 29 28 28 27 29 30 29 21 23 25
20 22 22 25 27 33 55 61 64 67 68 70 70 71 68 62 53 45 35 31 30 29 30 28 29 29 31 32 32 33 34 32 33 31 31 29 27 25 28 28 28 29 27
21 25 28 32 34 38 61 67 64 65 68 69 69 68 64 64 54 38 34 32 31 30 30 29 28 30 32 33 35 38 42 40 36 33 29 32 33 34 35 35 32 31 30
24 22 29 37 40 47 62 66 63 63 65 66 64 62 55 45 37 34 31 30 30 30 29 28 29 30 31 32 36 39 38 41 37 37 35 35 34 37 40 40 40 39 30
28 28 25 37 41 52 63 64 63 63 63 62 57 49 43 40 36 30 30 29 29 29 29 30 30 31 32 32 34 33 31 32 34 34 38 40 40 42 43 44 45 44 45
38 30 25 38 48 56 64 65 63 61 59 54 50 46 42 37 31 29 29 29 27 28 30 30 30 32 32 32 31 30 33 32 34 37 42 42 42 44 45 47 48 47 46
47 35 30 43 56 64 69 66 61 59 55 51 46 40 36 33 32 30 29 28 28 28 28 28 30 30 30 30 28 28 32 35 40 43 45 47 48 48 45 44 45 46 46
59 52 48 56 65 69 67 62 58 55 51 45 40 36 32 29 29 28 28 27 27 27 28 29 29 30 30 29 27 28 35 40 43 45 49 48 47 47 44 46 46 48 52
62 64 63 64 63 64 61 56 52 47 43 37 34 31 29 29 28 28 28 27 28 29 31 31 30 30 31 30 28 34 39 44 48 50 52 52 49 46 46 51 54 56 56
64 65 63 62 60 59 52 47 42 38 34 32 30 30 30 29 28 28 28 29 29 31 32 32 32 32 31 32 35 43 47 49 50 54 56 55 52 52 54 57 56 55 59
71 68 64 61 55 47 42 39 36 34 33 32 33 33 32 31 30 30 30 31 32 34 34 34 33 33 34 30 45 47 49 51 51 51 52 51 55 67 72 68 63 62 65
73 65 61 54 46 42 39 38 36 35 35 37 36 35 33 32 33 32 32 34 36 36 36 35 34 34 33 29 63 64 53 50 51 49 49 50 55 58 65 66 67 76 85
69 63 56 49 43 42 40 37 36 36 36 36 35 33 32 32 32 33 34 36 37 36 35 35 36 34 36 36 66 66 58 54 52 53 52 52 54 61 61 63 70 74 76
62 56 50 47 43 41 42 39 37 35 36 35 33 32 31 32 32 34 37 38 37 35 34 35 36 38 38 35 66 69 58 53 53 54 56 59 60 59 62 66 76 88 70
54 51 49 44 38 36 35 34 35 36 35 34 33 31 30 31 32 35 37 37 36 36 36 38 38 39 41 46 67 70 56 52 54 55 55 60 59 60 66 77 97 62 55
51 47 43 40 37 35 35 35 36 35 35 33 30 29 30 32 36 38 38 39 38 38 38 36 40 44 44 52 69 70 59 55 54 54 55 54 62 65 74 87 64 64 55
50 44 41 38 36 35 35 35 35 35 33 31 29 31 35 34 36 39 39 39 40 40 37 38 39 44 48 51 66 70 67 60 60 57 53 56 61 69 70 69 66 63 73
48 44 42 39 38 37 37 37 36 35 30 29 29 31 35 38 39 40 40 41 41 38 35 39 37 39 43 50 58 71 75 71 64 59 62 64 70 71 71 71 71 77 80
51 48 42 39 37 38 37 37 36 30 28 29 36 40 40 40 41 39 42 40 41 38 38 41 40 40 44 46 54 66 65 64 66 79 73 71 70 71 66 66 79 79 68
46 43 40 38 38 39 37 36 33 29 30 38 39 41 41 42 43 45 44 42 40 41 45 43 44 45 45 46 52 60 62 61 74 72 72 67 66 61 65 65 65 68 71
45 42 39 37 38 38 37 34 31 33 36 40 44 45 44 42 43 45 43 44 50 60 52 48 49 49 50 53 70 74 71 74 76 74 64 58 56 62 62 66 69 71 74
44 41 39 38 37 36 36 35 36 37 37 40 42 42 43 43 44 42 40 42 40 51 62 64 64 60 65 72 77 76 76 76 76 73 61 59 65 67 71 75 79 83 87

GFSMW_925_rhum_045.txt.gz
RH
20 21 22 24 24 23 24 27 26 30 37 45 54 57 59 68 78 82 81 82 73 64 63 54 41 36 32 30 28 29 29 32 29 23 22 26 29 37 34 37 27 28 30
18 17 19 23 25 26 29 29 28 31 40 48 54 56 65 86 91 89 79 72 65 57 52 48 37 32 30 28 28 29 30 31 31 26 28 31 26 26 34 29 27 26 25
17 14 14 17 24 26 27 30 29 33 43 49 56 60 81 90 92 84 72 68 70 66 54 40 33 31 31 33 33 34 31 30 30 30 28 31 31 25 18 24 23 26 24
16 16 15 14 16 24 28 30 32 37 47 56 61 69 80 79 78 75 69 63 56 50 43 36 34 33 32 34 31 31 27 29 28 30 27 33 29 26 27 19 22 21 24
15 15 16 18 17 17 27 34 36 40 53 59 64 73 70 74 74 72 66 57 51 39 34 32 32 32 33 32 33 31 28 27 29 30 30 27 27 27 30 36 25 24 24
14 15 16 18 20 21 26 38 41 48 56 65 65 67 67 66 68 66 63 52 46 37 35 33 33 33 34 34 33 34 34 32 35 32 30 30 29 27 29 33 32 32 28
16 16 18 20 21 24 26 41 47 52 60 63 62 64 68 65 65 64 63 50 42 34 32 32 32 35 36 35 36 38 40 41 39 36 31 30 31 31 32 34 37 36 33
18 22 22 22 23 29 30 42 51 53 58 61 62 66 63 63 66 58 48 41 39 36 31 30 31 33 33 33 39 41 40 42 39 38 37 35 34 34 36 38 41 45 38
23 28 28 24 24 30 33 45 53 53 57 61 64 63 63 60 52 42 36 33 32 32 30 30 30 30 30 31 32 34 30 31 32 34 35 38 38 38 40 42 43 46 52
28 31 28 26 22 31 36 50 52 54 58 62 60 57 48 42 38 36 34 34 35 31 30 30 31 30 30 30 30 29 31 30 30 34 37 39 40 40 42 44 45 44 46
31 38 30 25 26 35 44 51 53 56 58 57 50 45 42 36 34 32 31 31 31 30 30 29 28 28 28 27 26 26 28 31 34 38 40 41 43 44 43 42 41 43 44
36 44 38 34 38 45 54 54 55 56 53 48 46 41 35 33 33 33 31 30 29 27 27 26 26 27 27 26 25 25 28 33 36 39 42 44 42 45 43 42 42 45 47
36 48 47 48 49 59 58 55 54 52 48 44 39 34 34 35 35 34 33 28 27 27 27 27 27 27 29 28 26 29 32 35 40 42 45 47 48 47 44 46 49 51 54
48 52 52 52 54 60 55 53 51 47 42 38 33 32 31 30 29 28 28 28 28 29 29 29 30 30 29 30 31 38 41 44 44 44 46 47 50 48 49 57 60 59 59
59 60 59 56 58 56 50 46 44 40 36 34 33 32 30 30 30 29 29 29 30 31 32 31 31 32 33 28 38 47 47 45 44 45 45 44 44 54 58 62 66 67 68
74 68 61 60 51 46 43 40 36 35 35 35 34 33 32 31 32 31 31 33 34 34 34 33 32 33 31 30 36 65 57 50 45 45 44 46 47 47 53 60 60 61 64
72 64 60 50 44 40 37 37 37 39 40 40 36 35 34 33 32 32 34 35 35 35 34 34 34 32 35 33 43 66 61 54 49 47 48 49 49 54 56 57 57 64 69
64 58 51 48 42 40 40 40 41 42 43 41 39 34 33 32 32 34 37 37 36 34 33 34 35 35 34 35 42 67 61 49 48 47 49 52 52 55 56 60 72 80 86
53 50 46 45 49 48 50 47 47 41 38 36 35 32 32 31 33 35 35 35 34 34 33 36 35 36 34 40 55 69 59 49 49 48 49 51 55 53 58 65 83 87 66
52 54 57 68 82 76 71 68 60 55 54 40 30 30 30 32 36 37 37 37 37 37 37 34 35 36 40 41 56 67 60 54 53 54 55 52 52 58 63 69 76 71 67
60 60 57 68 62 60 47 39 36 33 31 29 30 33 34 34 38 38 37 37 38 38 35 34 33 34 38 45 52 62 68 64 65 66 57 57 60 65 67 68 71 70 68
43 39 37 35 34 34 35 34 33 32 33 35 35 34 36 37 38 38 38 38 38 36 32 31 35 33 35 40 46 57 66 67 65 61 62 70 70 69 67 68 66 70 75
60 49 40 42 43 43 42 41 38 35 32 31 35 38 38 37 37 38 39 37 37 34 32 35 37 37 38 39 42 49 58 63 63 65 70 69 68 66 62 60 66 66 66
64 57 50 42 39 38 37 37 35 32 32 36 38 38 38 37 41 40 40 37 35 35 39 36 38 40 41 42 47 64 68 67 70 77 76 70 62 54 57 59 62 65 69
41 38 37 37 38 38 37 35 33 32 35 37 39 42 41 38 39 41 38 37 41 47 52 48 50 48 50 54 71 75 76 75 76 72 75 63 53 60 61 64 70 73 77
40 38 38 38 38 37 36 34 35 37 39 39 38 39 40 40 39 37 33 37 33 30 32 62 66 66 67 72 79 79 76 75 75 76 65 58 66 67 70 75 80 86 89

GFSMW_925_rhum_048.txt.gz
RH
24 21 19 20 19 19 21 27 27 28 29 35 57 75 75 73 70 67 73 76 80 80 70 63 47 45 38 32 30 28 29 24 18 24 22 27 26 33 33 33 33 27 30
24 22 20 22 22 23 23 22 26 31 32 34 44 62 67 74 73 77 77 83 82 75 64 53 44 37 33 28 26 29 28 30 19 23 30 43 32 28 29 35 30 25 23
22 21 21 20 21 24 25 26 26 28 35 37 47 61 72 81 87 86 85 83 72 66 56 49 45 35 28 28 29 26 29 30 28 20 29 42 44 33 22 30 25 22 25
22 22 21 20 18 22 24 26 28 29 31 39 54 61 79 92 90 81 75 68 65 64 56 49 38 31 30 29 27 26 22 28 29 30 25 24 28 39 41 22 23 24 24
22 22 23 20 16 17 25 25 27 31 32 42 56 69 79 85 88 80 74 71 72 62 54 42 36 31 30 26 25 24 24 24 28 28 29 28 28 27 36 50 35 25 24
17 18 18 18 20 19 17 22 30 33 34 50 61 74 77 82 84 76 72 65 60 46 39 36 31 31 29 28 27 24 24 24 25 28 29 29 32 34 36 48 43 40 34
16 20 24 28 24 20 22 21 28 37 40 57 70 73 76 74 79 74 70 57 50 36 35 34 32 31 30 27 28 28 23 25 32 30 30 29 31 32 32 36 46 52 41
21 21 30 37 33 29 23 25 31 44 52 66 71 71 73 73 76 76 70 56 47 40 37 36 34 31 28 28 26 26 29 26 31 32 34 34 35 35 36 38 46 56 54
23 27 34 35 31 31 28 26 39 49 60 68 65 69 70 70 74 73 61 53 46 38 35 33 31 28 28 29 32 28 31 29 32 32 34 36 38 38 38 40 43 50 62
26 32 41 40 32 28 30 30 46 52 61 63 68 67 68 68 67 56 55 49 38 33 32 32 29 28 28 27 29 28 28 28 30 32 34 37 40 41 42 43 44 45 50
30 39 47 44 37 30 35 36 53 56 60 68 64 61 57 55 48 45 42 39 33 31 31 32 30 28 27 26 27 26 27 29 32 35 38 39 42 44 43 44 44 42 44
30 48 48 51 45 39 43 50 56 62 61 51 49 45 43 39 37 36 35 34 33 31 29 28 28 28 26 25 24 25 27 31 34 37 40 42 45 46 46 47 45 46 49
31 54 52 54 60 65 62 61 63 54 48 46 42 38 38 36 35 35 35 33 31 28 27 26 26 26 26 25 25 27 31 34 38 41 43 44 48 49 50 50 51 57 62
42 62 61 59 72 75 65 59 51 48 44 40 38 37 36 34 34 32 31 28 28 28 27 27 27 26 26 27 29 36 39 42 44 44 45 46 46 46 48 52 56 63 66
69 66 65 64 71 70 59 52 46 41 38 37 37 36 34 33 33 32 32 31 29 28 28 28 27 27 29 27 27 24 39 48 48 46 45 46 44 49 52 54 57 61 65
74 68 63 66 56 49 49 45 41 38 36 37 38 34 32 33 33 31 30 30 31 29 29 30 30 32 29 29 24 49 47 47 52 49 49 47 48 49 53 57 59 60 61
75 78 69 52 46 44 42 43 39 41 42 40 38 37 35 35 35 32 32 32 32 32 31 31 32 32 33 34 29 53 51 46 52 49 48 48 50 53 53 56 58 59 69
73 69 52 46 42 40 39 41 42 45 46 44 40 38 37 38 36 35 34 34 34 33 32 33 33 33 34 34 37 57 47 55 52 50 49 50 51 54 57 56 63 68 73
54 50 46 43 41 43 47 50 50 53 49 52 46 39 42 40 37 35 35 34 32 32 33 34 34 35 35 39 45 62 64 62 56 56 55 59 58 55 58 63 67 80 86
48 53 56 54 60 56 53 56 54 54 56 50 46 49 53 43 39 34 34 35 36 34 34 33 34 35 35 40 52 60 63 68 69 67 67 65 60 63 63 67 77 77 75
80 76 80 88 92 87 84 89 92 91 90 85 81 71 44 35 36 38 37 35 34 36 35 32 33 33 34 38 46 52 59 64 68 69 66 63 66 68 69 67 68 70 67
88 95 99 99 100 100 96 95 86 78 61 43 35 35 43 50 39 34 34 36 36 34 32 32 35 36 36 39 42 47 53 60 66 68 67 69 74 70 68 67 63 65 69
48 50 54 51 48 42 37 38 39 35 36 36 39 45 39 37 36 36 38 37 35 33 35 37 37 39 40 41 46 61 65 71 72 70 73 75 74 72 64 58 64 66 66
77 71 64 62 62 46 43 44 39 38 37 38 37 36 35 36 36 35 37 36 36 37 40 42 46 46 49 50 55 71 77 78 76 80 78 79 71 62 61 65 66 71 76
68 48 46 43 41 40 40 38 36 35 36 37 37 39 39 38 38 37 35 34 41 35 30 46 54 60 65 67 74 78 79 77 76 72 77 70 65 72 73 75 77 81 85
41 41 40 39 39 38 36 35 34 34 37 40 39 38 38 37 37 35 33 35 35 33 34 36 53 59 67 74 76 78 76 74 74 72 68 72 78 80 81 82 85 89 93

GFSMW_925_rhum_051.txt.gz
RH
31 26 23 21 19 19 19 21 28 42 57 72 82 86 80 73 85 74 60 66 65 68 71 71 65 53 50 45 38 28 26 21 17 21 23 28 29 34 30 31 32 30 30
29 28 22 21 23 21 20 22 27 28 47 59 66 81 83 79 84 82 67 68 69 73 76 72 61 50 47 40 29 27 27 26 16 19 34 40 31 28 32 35 36 28 27
28 28 27 21 20 23 23 23 25 31 31 39 70 76 87 85 91 90 74 74 74 79 80 68 54 47 45 35 28 27 27 27 24 18 26 41 42 36 25 37 31 26 25
28 27 25 23 18 18 19 21 24 27 32 33 41 67 82 94 91 89 81 81 83 84 76 62 48 38 34 28 27 26 27 26 26 25 21 21 25 33 28 24 25 26 25
28 26 29 23 19 18 17 18 22 24 30 35 38 50 82 88 87 89 84 82 75 73 60 58 49 41 37 32 28 24 23 25 23 28 28 27 29 29 38 44 37 26 23
23 24 22 23 24 23 22 19 21 28 28 35 45 59 75 85 93 86 79 69 68 64 61 53 44 41 36 32 26 24 21 21 21 23 23 25 30 37 38 49 48 43 33
20 21 36 39 31 28 26 25 24 22 31 35 55 68 72 79 88 83 79 76 65 61 48 49 40 40 36 31 28 22 21 20 22 24 27 28 28 31 33 38 46 53 41
23 21 38 39 35 31 29 28 27 25 26 51 67 72 75 86 89 85 79 76 62 55 45 42 38 38 34 29 26 22 22 21 22 26 29 30 32 34 36 38 45 64 58
27 30 38 40 36 32 33 33 30 28 37 73 76 80 82 83 86 87 79 71 57 46 41 40 40 38 35 30 23 23 22 25 28 29 31 34 36 38 39 41 44 51 71
32 37 47 44 37 32 38 36 32 31 64 80 77 80 81 82 83 82 69 61 47 42 39 40 40 34 32 28 28 26 27 26 29 31 33 34 38 40 41 42 44 46 54
33 36 52 47 42 34 38 42 39 50 80 79 77 77 79 80 78 72 62 50 41 39 40 40 40 34 29 28 26 26 27 26 29 33 36 38 40 43 44 45 46 47 47
35 42 56 51 49 49 46 49 65 79 74 72 73 76 74 69 67 59 48 42 40 39 36 31 32 29 28 26 30 38 27 29 32 35 38 41 43 45 47 48 50 50 51
45 60 59 57 69 76 74 76 68 61 61 65 62 56 51 53 48 46 41 40 37 37 36 33 28 26 26 25 24 25 28 33 37 42 44 44 46 47 47 50 50 51 55
69 67 65 63 85 79 71 59 54 52 51 50 48 45 44 41 41 40 39 38 33 33 29 27 26 26 27 27 30 33 37 42 44 45 45 46 47 46 48 52 54 57 61
71 79 69 72 88 69 63 57 51 49 50 49 48 44 44 40 38 39 39 37 35 29 28 35 46 48 35 30 28 25 30 32 33 36 42 47 48 54 54 55 58 60 62
79 75 72 78 66 57 48 51 59 54 48 44 43 42 38 40 39 37 34 31 32 36 34 36 41 33 29 29 28 30 31 29 35 46 48 49 49 49 56 56 58 60 61
80 77 60 55 46 46 48 51 54 51 48 44 39 38 40 44 46 47 46 32 34 35 32 35 32 32 34 35 33 38 38 36 47 52 51 51 53 55 56 58 61 60 68
68 53 49 49 47 48 49 51 54 48 44 42 48 59 65 68 63 44 40 41 45 50 43 32 32 34 38 35 37 54 47 47 49 54 59 60 62 62 63 61 66 67 71
48 48 48 48 50 52 53 58 64 56 56 54 57 72 65 51 45 42 40 35 34 36 35 34 34 33 34 34 47 56 57 56 54 59 64 70 68 65 65 66 68 75 83
52 54 53 56 58 56 64 72 72 86 87 87 77 58 46 38 39 49 63 60 44 35 32 32 33 34 34 38 47 54 56 57 59 65 68 67 69 68 68 71 76 75 72
76 78 80 78 82 78 76 85 87 98 94 84 71 80 88 90 86 72 51 38 34 34 32 33 34 34 37 40 47 48 51 57 68 71 72 70 74 75 73 70 71 68 65
96 98 97 99 99 98 96 100 100 98 96 91 95 92 78 59 46 43 37 35 34 32 33 34 36 39 40 42 50 60 66 70 76 76 75 76 82 76 73 70 66 67 72
97 100 100 100 100 100 99 100 100 97 95 68 52 49 51 42 36 34 35 35 34 34 38 39 42 43 41 43 48 72 77 80 79 79 80 81 80 74 70 68 71 73 70
62 65 63 60 50 49 51 55 47 42 40 56 74 43 38 38 36 36 36 36 36 33 35 40 45 44 50 56 75 78 78 76 80 78 80 78 70 71 74 74 74 76 82
67 67 69 64 55 49 50 47 44 45 49 42 39 39 36 36 36 35 33 34 36 32 33 41 48 56 62 71 75 75 76 76 76 74 70 68 75 81 82 81 82 83 88
49 48 46 44 43 42 41 41 40 35 35 40 38 37 38 38 35 36 42 42 41 44 47 48 57 53 61 67 72 74 74 75 75 75 76 83 85 87 87 88 90 94 97

GFSMW_925_rhum_054.txt.gz
RH
32 31 28 25 23 22 20 21 23 56 72 80 88 95 92 80 80 80 70 65 62 61 63 68 68 66 61 54 48 44 30 24 20 23 26 30 31 32 30 32 33 32 31
31 33 27 25 25 23 22 21 21 24 61 74 70 83 88 83 78 79 76 67 63 62 69 68 68 64 55 48 46 42 27 24 19 20 32 39 32 31 35 34 35 35 31
28 29 31 26 22 22 22 23 22 24 35 68 78 72 88 89 92 89 80 73 67 66 70 70 70 64 54 50 46 33 27 27 21 18 28 45 39 36 25 34 40 30 27
30 28 28 27 22 21 20 19 22 27 32 55 80 77 74 90 86 71 83 79 77 71 76 75 72 64 54 49 39 29 28 29 25 21 19 20 24 28 23 27 32 27 26
33 33 33 26 21 20 19 18 18 19 28 37 57 81 79 80 75 81 87 88 85 82 82 80 71 62 49 42 33 30 33 28 26 25 24 25 26 27 33 32 34 29 27
31 33 30 25 24 23 22 21 22 26 26 35 42 54 83 80 85 94 96 93 88 86 83 72 62 52 44 38 36 30 28 26 22 23 21 21 27 36 38 47 46 43 29
26 31 39 41 33 30 28 25 23 20 21 31 48 65 65 70 72 82 93 92 86 84 77 66 54 44 44 44 32 28 26 23 19 20 22 23 24 27 32 36 45 50 42
30 28 38 41 34 30 27 26 27 29 24 24 36 54 71 79 84 82 89 90 82 72 66 61 52 50 46 37 34 31 25 22 22 22 25 26 29 30 32 36 43 58 60
36 33 38 42 40 34 29 29 28 28 27 28 41 66 78 81 84 87 89 86 81 70 62 56 50 45 39 37 34 29 23 23 23 26 28 30 34 36 37 39 43 49 64
44 39 43 46 39 35 28 29 34 36 30 36 59 76 80 83 85 90 90 82 74 68 58 55 45 40 39 34 30 28 25 26 27 29 30 32 35 39 40 42 44 47 54
53 48 46 41 42 38 32 28 36 44 53 72 78 86 94 95 92 92 86 78 69 64 56 45 44 40 36 32 29 33 29 26 29 32 35 35 38 40 43 44 46 48 50
58 58 50 54 55 52 52 49 53 60 80 83 85 92 95 96 93 89 82 69 62 53 51 44 39 37 41 37 30 28 34 50 45 35 36 39 42 44 46 48 49 50 50
63 66 66 65 66 79 78 71 66 76 84 86 86 90 91 88 82 71 61 58 51 45 42 40 42 38 30 31 34 28 30 34 39 48 45 45 46 48 48 48 49 50 53
64 63 66 71 86 79 72 65 64 68 75 80 80 78 76 72 65 53 48 45 43 42 38 34 33 30 27 26 29 40 54 57 55 46 46 46 47 48 48 54 56 57 60
72 70 77 82 88 70 59 54 57 60 63 61 59 54 53 50 45 44 42 42 43 45 52 45 32 29 46 64 61 58 52 44 34 34 41 46 49 58 59 56 59 59 60
73 77 76 80 66 58 67 70 68 65 64 60 56 52 51 53 54 52 54 47 42 40 51 65 78 70 68 62 42 36 32 27 37 41 45 48 49 52 64 66 62 61 64
78 65 52 49 53 57 64 70 73 78 71 60 62 61 55 57 56 58 51 57 67 72 74 66 49 48 53 46 51 45 37 35 40 45 52 57 58 58 60 62 67 67 70
55 56 50 52 56 66 78 85 80 80 80 82 79 72 72 73 66 64 72 70 63 54 56 67 67 56 55 59 59 43 44 45 46 51 59 65 68 68 71 69 68 68 73
56 52 52 54 57 61 65 73 79 85 88 89 90 88 78 84 83 86 79 78 68 60 60 45 36 40 45 39 47 51 53 52 53 60 67 72 75 73 71 69 74 85 81
55 56 59 62 68 71 70 71 79 84 90 96 99 94 94 95 95 79 59 83 97 98 66 48 37 34 35 50 50 52 52 54 60 70 71 73 76 74 75 76 74 78 72
81 77 79 79 78 76 77 95 98 100 100 100 97 98 98 89 95 99 100 94 61 41 36 35 36 37 42 44 54 56 66 70 75 77 76 72 82 81 77 72 73 72 69
96 98 99 100 100 100 99 100 100 100 99 99 100 100 100 100 100 90 67 50 39 35 36 38 41 41 41 47 60 70 73 78 81 80 80 81 83 78 75 74 74 74 78
98 100 100 99 100 100 97 100 100 100 99 99 100 99 95 70 48 38 37 35 35 35 38 39 40 37 37 41 58 81 80 80 80 82 82 86 80 75 73 77 79 81 72
93 99 98 96 93 99 100 98 99 98 89 65 56 52 45 39 38 37 36 36 31 30 34 38 40 45 52 63 75 75 75 74 78 77 78 76 72 73 76 76 74 78 84
62 60 56 55 56 73 80 82 57 51 55 61 47 43 43 39 37 36 35 32 36 33 34 39 47 54 60 68 72 75 75 74 77 79 69 67 72 79 82 83 83 86 92
68 62 52 52 53 54 50 47 46 60 56 42 42 39 38 38 40 40 43 53 55 57 53 58 60 56 64 70 76 79 76 82 77 78 79 84 86 91 93 94 95 96 98

GFSMW_925_rhum_057.txt.gz
RH
32 29 27 27 27 27 28 26 25 37 78 96 100 100 100 99 96 87 78 72 72 69 64 65 62 70 71 68 59 49 46 38 25 23 27 30 32 33 32 35 35 34 33
34 33 28 26 25 25 26 26 28 27 55 85 91 95 93 95 84 86 81 80 74 72 66 64 64 68 70 64 56 50 43 27 23 24 30 42 35 37 36 35 36 35 35
30 29 33 27 24 25 24 23 24 28 31 67 86 92 94 93 100 100 90 80 78 72 68 64 63 68 69 64 55 49 47 29 23 22 30 47 42 39 30 36 40 39 34
32 33 32 31 26 23 21 21 21 22 29 40 86 90 86 88 92 73 69 77 80 75 71 68 68 70 69 62 57 49 43 30 25 24 24 23 25 32 25 30 39 34 30
38 37 36 30 25 24 22 21 21 24 29 36 72 85 87 81 74 78 75 82 85 83 79 75 76 74 65 60 58 50 38 30 30 25 24 24 24 22 28 30 33 32 29
32 34 35 31 29 26 23 21 20 20 21 26 50 77 85 85 83 88 93 87 89 88 87 83 83 76 68 62 58 47 36 33 32 28 23 20 26 33 34 43 43 41 27
39 36 35 46 38 33 29 26 25 23 22 28 33 50 79 88 79 76 85 93 96 94 90 89 90 81 69 63 51 42 35 33 30 26 21 20 21 23 30 33 43 44 39
46 40 36 43 40 36 34 32 29 26 25 25 28 38 54 68 80 79 80 86 90 93 92 90 88 77 64 54 47 38 32 28 24 22 22 23 24 25 27 30 39 54 58
58 49 43 40 41 37 32 31 31 27 22 22 26 33 46 66 73 80 85 90 87 91 92 88 79 66 53 49 38 31 31 25 25 26 25 26 29 31 34 35 39 44 56
60 61 52 44 43 40 35 36 28 29 27 27 27 30 41 62 77 86 91 92 92 91 89 83 69 54 54 40 36 32 30 26 28 29 28 30 32 35 38 39 42 45 51
68 66 64 56 55 53 50 45 42 40 35 37 42 48 64 83 90 93 94 94 90 83 80 70 60 55 43 40 36 30 29 27 32 36 39 44 41 41 41 43 45 47 51
69 68 67 61 60 62 74 77 74 73 75 64 69 81 92 98 98 98 94 89 83 77 69 64 56 46 42 36 30 32 40 39 45 54 42 40 43 45 46 47 48 49 50
63 60 62 59 71 83 76 69 70 78 89 93 93 97 100 100 99 92 84 79 72 64 58 53 47 44 40 37 38 40 49 46 41 43 58 59 49 48 48 48 49 49 52
77 77 81 72 87 78 69 64 66 71 83 92 96 99 98 96 89 80 73 63 57 55 54 57 58 47 36 38 40 38 42 59 68 64 59 54 49 47 48 50 57 57 59
71 72 76 88 76 67 70 70 66 67 71 75 78 80 78 73 69 60 52 50 49 46 47 44 35 33 33 37 55 79 85 88 59 44 40 42 46 58 65 63 61 63 64
60 71 61 60 62 74 76 73 67 66 61 60 61 60 58 56 55 54 57 55 48 42 39 46 49 62 83 93 86 65 48 35 35 37 39 41 42 49 60 69 68 66 66
58 53 54 56 66 75 75 76 74 67 70 68 68 61 66 70 71 68 62 66 66 64 74 85 89 87 94 96 93 52 44 40 38 36 39 49 55 60 63 66 74 72 73
61 58 55 63 76 81 80 82 85 80 81 87 85 82 82 86 83 77 82 86 87 90 93 94 95 98 98 96 88 40 42 41 44 51 61 66 68 69 76 75 72 72 79
55 57 59 64 70 82 87 93 99 99 99 97 98 95 94 94 92 92 95 98 96 100 98 98 89 80 83 58 56 46 50 52 56 61 69 76 76 74 77 72 80 88 77
59 62 72 74 75 73 75 79 85 95 100 100 100 98 96 95 100 98 97 99 99 98 95 60 54 43 43 61 54 54 58 61 71 75 73 71 79 80 78 82 79 78 73
79 84 88 88 89 92 88 100 100 100 100 100 100 99 98 99 97 98 100 100 88 59 47 40 44 42 44 52 63 75 72 76 81 78 78 74 86 79 76 75 76 77 74
94 100 99 100 100 92 92 100 100 100 99 100 100 100 100 100 100 98 74 49 41 40 40 41 42 42 41 45 63 78 80 80 80 81 81 84 87 81 78 75 79 80 84
92 99 99 99 100 99 99 100 100 100 100 100 100 99 100 83 55 44 42 38 37 38 40 41 40 38 42 52 65 74 79 80 79 82 86 88 79 76 71 78 85 87 76
93 99 100 100 100 100 100 99 100 100 99 98 85 57 45 41 39 37 37 37 35 34 37 39 42 48 53 66 73 76 77 76 79 80 82 71 69 76 80 75 76 81 87
87 81 75 67 88 100 99 99 98 89 68 55 46 45 41 39 40 37 32 32 36 33 34 41 50 56 60 69 75 78 78 78 81 84 68 64 75 81 83 84 85 88 91
64 61 66 68 71 80 77 70 66 61 54 43 42 38 37 38 42 43 57 61 61 60 65 66 64 63 70 74 78 80 79 82 80 79 76 84 88 92 94 96 94 91 96

GFSMW_925_rhum_060.txt.gz
RH
38 34 30 28 26 26 30 29 28 38 90 100 100 100 100 100 100 91 86 85 83 78 65 58 68 78 82 73 78 69 55 47 38 26 28 29 32 32 34 40 40 37 34
37 35 29 26 26 24 25 29 29 28 62 90 91 98 98 99 100 99 92 88 85 83 75 69 64 74 74 72 76 67 51 42 33 25 31 41 37 38 36 36 37 36 36
35 32 34 30 26 26 25 26 27 28 32 65 84 100 100 99 100 99 100 88 91 88 82 77 72 72 66 68 73 63 55 43 32 25 30 50 46 42 38 40 39 38 37
36 39 37 33 30 26 24 24 28 27 30 56 89 97 96 96 99 99 76 76 82 80 88 81 80 74 67 70 72 65 56 52 37 30 28 28 28 42 32 33 42 42 39
38 38 40 36 31 29 27 25 24 24 24 30 80 89 98 97 92 93 93 96 74 82 89 85 82 78 71 75 74 70 56 55 48 36 33 28 25 22 27 30 38 37 34
50 45 37 39 37 34 31 28 26 24 24 26 36 73 87 94 94 87 92 89 91 91 93 91 84 79 79 75 76 72 63 55 48 40 32 26 27 30 30 35 40 37 30
56 51 48 47 41 38 35 32 32 29 29 28 29 40 62 82 85 86 85 94 98 98 95 87 88 85 84 80 79 70 65 54 47 36 33 26 21 22 25 28 43 39 32
66 61 54 50 46 43 40 38 35 31 31 32 32 37 50 74 85 86 86 88 88 90 89 97 98 93 88 82 74 70 60 49 38 33 28 24 21 20 21 23 33 49 52
67 68 64 51 49 48 44 44 42 39 35 38 34 31 32 40 46 58 80 89 89 90 95 100 98 97 93 86 74 62 53 38 32 26 23 24 24 25 27 28 30 34 47
66 70 69 59 54 56 53 50 52 49 43 40 48 51 43 41 42 52 69 88 96 99 100 100 100 98 91 78 63 53 37 30 28 28 29 30 33 34 36 40 48 46 43
71 73 72 62 62 62 71 71 72 73 67 65 59 58 62 62 68 82 91 98 99 100 99 99 95 87 74 60 49 36 33 30 32 35 36 37 46 59 61 56 47 45 50
74 74 72 67 67 78 76 67 67 70 75 79 82 82 89 97 100 100 100 100 99 98 96 89 78 65 56 47 38 35 33 34 40 52 63 60 66 68 64 58 58 49 51
84 82 80 86 86 80 70 67 67 70 76 82 88 100 99 99 98 100 98 95 91 85 78 72 61 53 46 40 36 37 48 59 63 61 67 77 80 72 58 52 51 50 50
73 70 81 93 83 72 71 69 68 71 80 88 95 98 99 97 88 84 80 73 70 69 63 54 48 43 41 40 45 52 57 66 78 82 87 88 73 65 55 51 56 61 61
65 63 71 78 74 76 73 71 68 69 73 79 83 81 81 84 78 71 76 75 72 65 56 50 48 53 60 64 68 76 88 90 84 84 70 56 54 69 72 71 72 71 70
62 55 58 63 70 77 78 68 66 63 64 63 65 66 70 72 75 75 76 72 68 68 68 60 53 58 76 88 90 89 85 73 49 46 46 43 46 47 50 71 71 71 72
62 58 62 68 73 77 78 81 76 71 68 68 72 75 77 79 80 78 82 89 90 73 68 68 74 93 98 95 94 92 80 44 39 38 44 50 58 58 56 59 74 76 77
59 59 60 73 82 83 86 89 87 88 87 89 88 81 81 85 84 84 86 81 79 80 87 94 97 100 100 98 51 45 45 46 50 55 61 63 61 59 78 78 76 76 83
56 62 70 72 79 84 90 94 95 98 98 100 100 100 94 99 98 98 100 99 98 100 100 100 99 93 99 97 80 54 54 56 58 64 69 72 71 72 81 78 92 86 78
63 72 76 77 76 79 83 94 100 99 99 100 100 100 100 99 100 100 100 100 99 99 98 91 94 96 89 86 65 61 58 65 70 72 70 71 83 82 78 78 78 80 74
81 88 93 94 91 91 88 99 99 100 100 100 99 100 100 98 100 99 99 99 99 74 50 55 51 50 56 69 76 78 72 77 80 78 81 81 90 80 78 76 77 77 78
92 99 98 100 99 94 96 100 100 100 100 100 100 100 100 100 99 100 85 48 42 43 47 46 44 43 43 60 74 79 79 79 81 83 84 86 83 80 77 77 83 83 88
92 100 98 100 100 100 99 100 100 100 99 99 100 100 100 94 66 49 44 41 41 41 45 42 39 41 45 55 68 75 81 83 84 82 87 86 77 80 69 86 90 90 79
92 99 100 100 100 100 99 98 100 100 99 99 91 61 44 42 40 39 39 38 36 36 36 35 42 51 60 71 76 79 80 80 80 80 83 70 69 72 81 76 78 81 87
95 92 89 98 100 100 99 99 99 97 79 51 45 45 41 40 37 33 32 33 37 35 39 47 55 58 62 73 78 78 79 80 81 87 65 68 79 81 82 82 84 85 88
79 70 76 87 95 95 96 95 81 67 49 45 42 41 41 42 45 56 66 67 65 70 67 69 68 67 72 75 80 82 81 82 80 74 78 83 85 89 92 93 91 87 90

GFSMW_925_rhum_063.txt.gz
RH
37 35 31 30 30 30 29 28 30 35 85 100 99 100 100 100 100 96 91 85 83 81 82 75 66 75 85 92 82 85 78 60 47 36 30 29 30 30 33 41 44 40 38
32 32 33 30 30 29 28 28 30 29 55 92 98 99 100 99 99 100 99 96 89 87 86 84 69 65 80 92 88 82 75 54 46 38 40 38 39 39 36 41 44 42 38
34 31 32 33 30 30 28 26 26 28 31 68 96 100 99 99 98 99 99 100 92 87 86 86 80 62 73 84 87 79 76 54 44 34 36 45 42 41 42 39 40 39 37
42 38 40 38 34 31 30 29 28 29 31 36 95 98 94 92 93 98 100 100 100 94 92 89 89 80 71 78 81 77 74 65 50 35 31 33 33 38 40 38 44 42 40
50 45 43 47 40 34 32 29 28 28 32 35 71 89 91 90 89 94 100 100 100 100 98 97 92 87 82 76 78 77 73 67 61 47 40 38 30 26 32 39 41 42 43
56 51 49 48 44 41 38 37 32 29 28 30 35 86 95 96 100 94 99 100 100 100 100 100 100 96 89 84 78 77 76 68 63 58 50 42 33 38 33 35 38 41 40
61 59 55 54 54 51 45 41 40 37 34 33 34 45 98 100 96 96 98 100 100 100 100 100 100 100 98 93 86 82 82 73 65 62 52 43 30 27 27 44 42 38 36
62 64 62 58 54 54 54 51 44 39 38 36 37 40 46 68 94 96 92 92 96 93 98 100 100 100 100 97 92 87 86 80 68 60 49 37 30 25 25 28 42 45 46
64 66 65 64 58 59 59 65 60 52 48 44 39 39 39 38 48 69 90 96 96 96 98 100 100 100 100 100 98 92 88 80 68 54 41 43 35 28 30 30 28 36 52
69 69 68 68 61 66 73 68 64 64 70 67 59 54 51 51 49 49 58 70 84 98 100 100 100 100 100 100 96 90 82 67 53 44 35 31 32 34 39 46 44 56 65
75 74 70 73 74 79 70 66 67 68 70 77 80 72 70 71 72 74 77 86 97 100 100 100 100 100 100 98 90 78 65 49 35 33 34 39 43 51 63 62 68 76 69
77 69 72 81 89 80 71 68 67 70 76 82 87 95 96 98 99 99 98 99 99 100 100 100 100 98 94 84 74 59 41 34 38 44 51 67 71 76 80 88 90 88 68
63 69 79 88 81 78 77 73 71 74 81 88 94 99 97 95 96 96 98 98 99 100 97 91 84 75 64 56 48 39 40 42 52 62 69 76 87 96 99 97 90 78 61
64 60 64 70 77 78 76 75 70 73 81 88 92 95 94 88 86 85 81 80 77 74 73 64 63 58 52 48 44 43 54 69 77 84 90 94 95 97 96 86 79 79 89
63 58 60 70 76 79 76 71 65 67 68 71 75 81 82 78 78 77 75 72 67 67 67 67 62 59 53 55 56 62 71 84 97 100 100 83 63 84 94 91 93 88 79
62 57 59 67 73 78 82 78 74 68 69 75 76 81 83 82 83 80 80 80 85 86 89 92 92 88 78 75 78 84 92 95 96 58 49 46 58 60 55 90 78 74 76
62 58 63 76 81 84 87 88 87 81 81 81 82 87 92 85 91 96 96 96 98 99 88 83 80 98 100 98 98 98 97 81 46 44 49 59 68 64 57 59 76 79 82
60 59 64 79 85 88 94 94 91 88 90 94 95 96 99 100 100 100 100 100 99 99 100 100 100 100 99 99 84 54 42 48 53 60 78 74 69 59 80 81 80 84 83
62 66 72 75 79 88 92 95 99 99 95 100 99 99 100 100 100 99 100 100 100 100 99 99 99 98 98 99 61 56 56 59 79 79 69 74 72 81 79 79 85 85 80
68 73 76 78 85 93 94 99 100 99 100 100 99 100 100 99 100 100 100 100 99 99 99 98 98 96 94 95 88 69 64 66 71 72 71 73 86 81 78 80 79 80 72
84 88 92 96 96 95 98 100 100 100 100 100 100 99 100 99 100 100 100 99 99 91 77 78 82 78 77 86 82 82 70 81 81 83 84 81 88 81 80 79 78 78 80
91 95 98 99 98 95 99 100 100 100 100 98 99 100 100 100 100 94 60 45 47 52 53 49 47 46 57 69 79 79 81 83 84 86 87 89 83 79 82 82 88 86 91
94 100 97 100 100 99 100 99 100 100 100 99 100 100 98 78 47 39 42 42 41 41 43 38 38 47 59 68 80 81 84 84 86 85 90 82 76 72 67 90 95 86 79
88 97 99 100 100 99 100 98 100 100 100 98 79 54 43 40 39 39 39 38 38 36 36 42 48 53 63 76 79 80 79 81 79 81 77 61 67 73 77 76 79 82 89
94 97 99 100 99 100 100 100 100 98 84 50 43 42 40 38 33 35 36 33 35 32 37 51 58 61 68 75 79 80 80 82 80 89 59 70 77 81 84 85 85 87 91
90 84 96 100 100 98 99 98 96 77 44 44 42 41 39 40 46 57 69 70 74 76 76 73 72 69 76 78 83 82 82 82 85 65 80 87 92 93 94 94 96 94 94

GFSMW_925_rhum_069.txt.gz
RH
16 17 19 20 23 24 25 25 26 29 46 56 92 96 100 95 90 75 69 70 68 68 71 71 68 68 67 77 78 72 68 66 62 57 46 46 45 43 41 45 45 46 52
16 18 21 22 22 24 26 27 26 26 28 41 64 90 94 97 99 99 90 85 76 75 74 74 74 70 70 69 82 79 76 68 65 57 53 61 50 45 42 41 44 44 47
23 20 20 22 23 24 24 25 26 27 27 28 37 70 74 76 89 96 97 99 97 85 84 78 79 76 73 72 74 81 79 73 66 58 59 68 66 47 42 39 44 43 44
26 27 29 29 32 31 32 32 31 30 31 31 32 37 56 64 70 78 86 93 96 97 95 91 86 87 83 78 75 78 83 76 70 62 60 57 45 55 53 42 40 43 42
30 33 36 36 40 46 46 42 36 34 32 33 35 37 45 52 60 61 67 72 84 91 98 99 95 95 88 89 85 81 83 80 72 66 61 55 51 43 45 51 45 41 42
33 33 38 39 44 48 46 44 37 34 33 34 36 38 45 52 60 60 63 64 69 81 90 97 99 96 99 94 96 91 92 87 80 71 67 60 61 57 52 59 50 48 46
38 38 39 39 45 48 51 47 43 38 38 37 37 37 42 50 56 60 64 66 70 77 80 92 97 96 94 97 97 97 96 94 90 86 78 69 67 59 54 48 54 54 47
42 44 45 45 44 48 53 54 52 51 49 45 42 39 41 41 44 55 64 66 68 73 82 88 93 94 97 98 100 100 99 100 99 98 91 82 72 64 56 49 52 59 58
47 47 46 48 48 52 56 55 53 55 59 61 57 51 46 48 50 54 61 67 72 75 83 91 97 99 99 100 100 99 100 100 100 100 96 86 75 60 48 52 67 88 93
48 46 45 49 55 57 57 55 55 58 63 65 67 69 72 72 72 70 67 68 69 74 86 94 94 97 95 100 100 100 100 100 100 100 97 87 82 87 93 94 85 86 85
49 48 49 54 58 56 55 55 56 59 64 67 74 79 78 78 79 79 79 80 82 85 88 92 98 92 97 100 100 100 100 100 100 100 97 95 92 91 87 83 82 80 82
50 53 57 56 55 55 56 56 56 60 66 71 72 75 74 74 74 76 80 83 87 88 93 95 98 100 100 99 99 100 99 99 98 92 89 88 80 79 79 83 88 93 93
50 50 51 52 53 55 56 54 55 59 64 70 73 73 71 70 69 68 66 70 72 71 73 76 76 75 84 84 83 89 87 88 89 90 85 75 69 80 90 92 97 97 97
50 48 49 51 54 56 55 56 56 60 63 70 72 74 74 73 74 74 72 72 71 69 72 71 72 72 73 72 75 78 80 83 83 80 81 84 87 94 100 100 99 95 88
51 50 52 52 52 54 55 58 61 63 64 68 73 78 82 83 85 87 89 87 85 84 83 83 81 79 81 90 87 83 81 79 86 92 98 100 100 99 93 83 84 91 85
53 49 54 52 52 56 59 62 63 64 65 69 73 80 83 89 95 98 97 98 100 99 97 98 98 96 98 100 87 81 90 97 100 99 99 99 94 91 87 67 77 92 85
52 51 53 56 59 62 62 62 64 68 70 71 76 81 86 92 98 98 100 100 100 99 98 99 98 99 100 100 100 99 99 100 98 96 95 91 75 48 58 61 78 80 81
52 50 55 61 64 67 69 69 70 73 75 76 82 86 92 99 99 100 100 100 100 99 99 99 96 98 100 100 98 98 97 96 90 90 89 86 75 72 83 81 77 82 81
48 50 57 64 71 71 75 78 78 80 83 87 94 97 100 99 99 100 100 100 100 100 100 98 99 100 99 93 90 82 86 87 78 67 85 77 67 75 84 79 84 80 69
53 58 63 68 71 78 81 84 86 89 97 100 100 100 99 100 99 99 99 100 100 100 100 98 94 89 94 90 80 67 57 57 58 63 67 70 85 83 83 80 71 67 61
61 66 70 70 76 86 89 95 99 100 99 99 99 100 100 100 100 98 95 95 93 84 80 72 77 73 75 85 81 76 71 67 67 65 65 69 84 82 80 80 77 67 74
70 73 77 81 83 90 98 99 99 99 99 100 100 100 100 100 98 94 88 73 66 54 48 49 52 60 68 76 83 83 82 82 67 63 68 72 83 79 82 80 79 88 90
69 80 81 81 90 94 100 99 100 100 100 100 100 100 89 62 44 42 42 39 35 32 31 34 38 47 56 63 69 81 74 80 73 72 78 75 74 78 79 83 89 85 75
70 71 72 86 93 96 100 99 100 100 94 88 77 51 37 37 39 38 35 33 30 28 30 34 40 46 53 60 64 67 64 67 66 76 72 60 60 68 70 73 73 74 75
74 78 78 86 92 97 100 100 97 86 72 53 40 39 39 35 31 30 31 31 43 37 36 46 46 46 51 67 80 83 78 80 74 83 54 53 59 66 67 68 72 74 75
74 82 83 89 96 100 98 93 86 72 49 38 40 38 37 39 45 54 65 68 76 55 50 50 57 59 61 80 87 85 87 85 81 65 51 56 66 71 74 76 80 87 90

GFSMW_925_rhum_072.txt.gz
RH
19 18 18 17 19 21 26 28 28 35 63 82 89 85 84 84 78 74 71 67 64 64 65 66 69 68 66 67 71 70 66 66 62 59 52 48 46 44 43 46 45 47 50
20 19 21 21 22 23 25 25 26 27 29 43 72 83 83 84 89 84 79 74 71 67 67 67 70 71 69 68 73 72 73 68 66 63 52 68 55 47 44 42 44 45 48
28 26 25 24 24 23 24 26 27 27 27 28 35 76 81 81 85 89 91 86 83 80 77 72 73 75 73 71 72 77 76 76 69 65 57 85 83 56 47 46 43 45 46
28 32 35 34 35 37 31 30 29 30 30 29 29 49 84 85 88 85 82 84 89 92 85 95 83 78 79 75 79 78 86 82 78 71 60 61 55 64 59 45 41 43 45
36 41 39 40 46 48 46 40 33 31 31 33 33 34 36 43 67 72 76 81 80 83 85 87 82 91 83 82 79 79 84 88 84 76 68 66 66 50 60 64 49 42 44
41 44 41 45 50 51 47 43 37 36 34 33 33 34 35 40 49 58 62 62 64 68 80 89 94 94 93 88 86 86 86 92 89 80 75 69 68 70 63 78 61 54 47
46 47 47 47 49 52 54 52 50 45 41 39 38 37 38 40 47 55 62 65 66 68 73 81 80 82 85 86 88 90 94 93 95 87 82 79 70 69 65 64 66 66 53
53 54 53 49 49 52 57 55 53 56 58 57 52 44 41 42 43 44 51 62 68 70 74 78 79 82 87 92 90 91 97 100 98 97 96 88 80 75 70 65 66 86 84
57 54 51 52 53 57 56 55 55 60 64 65 63 60 63 60 61 55 55 62 71 76 82 89 89 80 94 98 100 99 99 100 100 100 100 100 93 84 76 67 67 79 97
55 54 55 55 58 57 55 55 57 61 64 69 73 74 73 71 70 73 75 72 74 76 80 84 87 96 88 89 87 96 99 100 100 100 100 100 96 88 81 73 76 85 92
56 58 59 59 57 56 56 56 58 62 68 71 76 77 77 77 79 81 82 83 85 84 88 91 92 97 100 96 95 92 99 99 100 100 100 100 98 95 95 94 94 94 95
58 62 63 56 56 57 56 56 59 64 68 72 74 72 72 70 70 71 76 80 80 81 88 89 89 89 92 98 100 100 100 100 100 100 100 99 99 96 93 91 90 90 86
57 62 58 57 56 56 55 54 58 61 68 72 73 73 72 72 70 69 68 68 69 72 74 77 76 76 79 81 84 91 94 97 98 97 95 93 91 90 91 94 96 96 95
56 56 60 59 57 56 56 58 61 62 67 73 77 78 78 79 80 78 78 78 78 78 78 77 77 77 78 80 82 86 91 94 94 94 90 88 85 90 97 99 99 95 83
57 58 60 62 57 55 58 62 63 66 68 74 79 84 88 90 91 92 93 90 88 87 87 81 78 83 84 86 88 84 84 83 88 94 98 97 99 100 100 96 89 81 81
58 56 58 56 57 58 61 63 64 66 69 74 81 85 90 96 98 99 98 98 99 99 100 99 100 99 99 99 87 84 89 97 99 99 99 99 99 100 90 86 96 76 81
55 54 61 59 60 62 62 64 67 70 71 76 81 88 94 99 100 98 98 100 100 100 100 98 98 99 100 99 96 93 93 94 95 96 96 94 87 61 57 88 78 76 85
53 53 58 62 64 66 67 68 71 75 77 83 86 94 99 99 99 98 99 99 99 100 100 100 100 99 100 99 95 92 91 91 92 92 93 89 77 68 80 82 79 83 80
53 52 59 64 68 69 73 75 79 82 86 93 99 99 99 99 99 100 100 100 100 100 100 99 92 95 96 96 61 54 58 61 61 65 66 74 70 81 83 82 84 76 70
55 62 66 70 71 76 81 81 83 90 96 99 100 99 99 99 99 99 100 99 100 99 98 91 91 80 82 78 72 63 65 60 62 64 68 77 80 85 85 81 76 70 63
62 63 67 68 77 83 86 93 98 99 99 100 98 98 99 99 99 100 97 94 77 74 78 81 76 80 79 82 84 81 68 67 68 65 66 70 83 81 81 82 71 70 79
70 71 75 79 82 89 94 100 100 100 99 99 100 100 99 99 95 92 80 63 57 56 54 54 60 67 69 80 82 81 80 80 68 66 71 74 80 77 80 76 86 92 92
73 79 84 86 87 90 99 100 100 99 99 100 100 98 97 82 62 51 47 43 38 35 35 37 44 50 57 62 65 68 66 68 69 67 75 78 67 74 73 79 86 82 73
76 80 79 88 89 95 100 99 99 99 99 97 93 68 46 39 38 37 35 34 30 29 32 36 43 48 54 62 70 70 68 71 68 72 71 62 65 72 77 74 72 74 75
72 72 76 86 88 99 99 99 99 99 92 83 52 37 40 39 36 36 31 30 34 35 36 43 44 48 57 69 80 83 80 82 75 80 52 52 58 67 70 70 72 75 80
76 76 76 85 89 99 99 99 96 85 68 44 39 39 34 32 36 41 54 60 48 35 37 42 49 56 59 75 82 85 88 89 79 62 54 56 69 75 79 82 87 89 95

GFSMW_925_rhum_075.txt.gz
RH
22 19 20 21 23 22 32 60 58 74 81 83 81 73 79 71 69 68 68 66 64 63 62 62 62 65 69 71 73 73 64 64 66 66 59 56 50 46 44 46 48 50 56
29 27 25 24 24 24 26 28 28 43 76 77 81 80 72 75 74 72 80 73 69 65 64 64 63 65 70 70 70 75 71 66 67 65 61 67 56 47 45 44 47 46 50
30 31 33 31 27 25 24 25 27 27 28 52 81 86 86 82 75 73 73 81 84 83 72 68 66 66 69 70 70 70 75 76 73 66 62 85 82 66 50 48 44 45 46
32 41 42 41 36 36 33 28 27 30 30 30 35 78 82 88 78 69 58 52 65 79 83 82 83 76 72 73 73 72 73 83 84 79 65 60 62 70 68 51 50 46 45
44 46 47 46 47 45 42 37 31 29 29 31 33 36 67 86 81 79 77 80 76 74 67 69 74 87 94 84 83 85 87 91 92 83 79 74 71 61 69 79 64 51 52
50 48 47 50 53 52 48 48 38 39 36 32 30 32 35 36 38 49 82 84 78 80 77 79 81 84 89 92 91 94 98 94 92 95 89 80 79 83 75 85 75 70 65
52 51 57 58 56 57 56 54 54 55 50 46 44 39 37 38 40 46 55 69 71 72 70 74 81 82 78 72 76 83 87 92 96 100 99 91 84 80 83 79 85 86 79
61 62 59 58 59 60 56 55 59 60 58 57 57 55 47 48 51 52 53 63 74 77 76 83 89 93 96 87 96 95 91 90 90 97 100 99 92 88 84 82 83 91 88
66 64 62 62 64 59 58 57 60 63 65 66 63 63 65 64 65 66 64 71 78 82 83 90 94 89 84 80 88 96 99 100 100 100 100 100 100 100 94 90 86 85 98
64 64 66 65 60 57 57 58 62 66 69 75 76 77 76 76 76 75 76 75 78 80 82 84 84 87 91 83 82 80 80 88 86 100 100 100 100 100 97 94 89 87 93
65 68 72 62 59 58 58 60 64 68 72 77 76 75 77 80 79 78 81 80 80 81 81 81 78 82 94 97 97 95 97 99 98 99 100 100 100 99 96 93 91 94 98
69 74 68 63 61 59 57 60 63 68 75 74 73 72 71 70 70 71 74 75 74 77 84 85 85 86 88 94 98 98 98 98 99 99 99 99 100 99 99 97 94 94 96
72 72 67 65 62 58 57 59 62 69 73 74 73 73 73 71 71 72 71 72 74 75 77 77 77 77 80 82 87 92 96 98 99 98 98 99 96 95 94 94 94 92 92
66 69 70 67 61 58 59 61 64 70 74 75 77 79 81 82 80 80 79 79 80 78 78 78 80 81 82 83 86 90 93 93 94 94 91 89 88 90 93 95 97 98 94
63 65 70 71 62 61 63 64 67 71 75 79 84 90 91 92 91 91 90 88 87 88 86 85 86 86 86 86 86 86 88 87 89 96 99 99 99 99 97 97 97 94 95
63 64 66 65 64 62 64 65 67 72 76 82 89 93 97 99 100 99 99 99 99 100 99 99 100 99 100 97 81 80 87 92 95 98 98 99 99 99 100 98 98 92 94
62 64 64 64 65 63 65 67 69 72 78 85 90 94 97 99 99 100 98 98 98 99 98 98 99 99 99 100 93 92 94 92 93 96 95 92 83 73 66 88 92 82 73
62 61 62 64 65 65 66 70 73 77 82 89 94 98 99 100 100 100 99 100 99 98 98 100 100 99 100 100 95 89 87 86 83 76 66 64 67 70 85 84 81 82 80
57 60 62 63 68 70 71 75 80 82 90 96 98 99 99 100 100 99 100 99 98 99 98 100 97 90 88 67 54 49 50 54 58 61 73 75 78 83 89 83 83 79 72
60 66 66 69 73 76 76 80 88 90 97 100 99 99 100 99 99 99 99 99 99 96 95 76 68 72 76 77 78 63 62 63 66 70 69 80 82 85 83 81 76 72 66
66 68 70 73 76 79 81 88 94 98 100 100 99 99 99 100 99 99 99 87 91 87 87 82 80 73 79 84 84 73 61 65 67 66 68 70 84 80 80 81 66 70 83
72 68 75 79 80 85 86 97 100 100 100 99 100 99 99 100 100 96 77 74 70 67 66 67 69 70 78 66 78 77 79 66 62 66 71 72 77 76 79 78 86 91 93
74 75 81 86 88 91 93 100 100 100 99 99 100 100 99 95 93 79 61 54 49 44 42 43 49 55 61 64 76 77 76 75 73 70 83 81 65 63 60 81 85 85 72
82 81 86 90 92 92 96 99 100 100 100 100 99 99 94 76 60 49 42 38 36 33 34 41 45 50 58 66 71 71 68 69 70 71 60 62 62 68 75 75 71 73 76
80 83 88 87 91 94 100 99 100 99 100 97 90 78 57 48 41 37 35 32 32 30 31 38 44 47 57 68 79 80 79 82 74 79 49 51 58 69 73 74 76 80 86
79 81 84 86 90 95 100 100 100 100 92 90 68 41 41 39 40 36 44 42 44 41 42 39 42 48 54 74 68 66 86 89 79 70 56 58 67 76 80 84 88 89 95